Darstellungsparameter: Aktuell verwendete Einstellungen:
Skalierung der Graphiken ... ?
xyx+y,   Skalierungsfaktor:      Skalierung: Modus: x, Faktor: 1
Darstellungszeitraum ... ?
Vom - - bis: - -   Zeitraum: 15.05.2020 - 21.05.2020
Min/Max/Avg-Anzeige ... ?
Zeige MMA aktuell
Zeige MMA Monat
Zeige MMA alles
Zeige --A aktuell
Zeige --A Monat
Zeige --A alles
Keine MMA-Anzeige
MMA:
Keine MMA-Graphiken
MMA-Basis: 15.05.2020 - 21.05.2020
Quicknavigation für Darstellung... ?
Tage:      1T, 2T, 3T, 5T -1T -2T -3T -5T +1T +2T +3T +5T
Wochen: 1W, 2W, 3W -1W -2W -3W +1W +2W +3W
Monate: 1M, 3M, 6M -1M -3M -6M +1M +3M +6M
Jahre:    1J, 3J, 5J, 10J -1J -3J -5J -10J +1J +3J +5J +10J
Nutze für die Darstellung ... ?
Originaldaten oder Mittelwerte auf ...
Stundenbasis Tagesbasis Wochenbasis
Monatsbasis Jahresbasis      Datenbasis: Original-Daten
Darstellen als:
Statistik (Auto) Statistik J:M      Darstellung:
Zur Graphik,    zurück zur Übersicht aller Sensoren.
 
Tabellarische Datenbersicht: ?
 
Sensor: Nr:Datum:Temp:Feuchte:Taupunkt:
Aussen-T/F 1 15-05-2020 00:00:00 6.8 C 72 % 2.12 C
2 15-05-2020 00:05:00 6.8 C 72 % 2.12 C
3 15-05-2020 00:10:00 6.8 C 72 % 2.12 C
4 15-05-2020 00:15:00 6.8 C 72 % 2.12 C
5 15-05-2020 00:20:00 6.7 C 73 % 2.21 C
6 15-05-2020 00:25:00 6.6 C 74 % 2.31 C
7 15-05-2020 00:30:00 6.3 C 74 % 2.02 C
8 15-05-2020 00:35:00 6.1 C 75 % 2.01 C
9 15-05-2020 00:40:00 5.9 C 76 % 2 C
10 15-05-2020 00:45:00 5.8 C 76 % 1.91 C
11 15-05-2020 00:50:00 5.7 C 77 % 1.99 C
12 15-05-2020 00:55:00 5.6 C 77 % 1.89 C
13 15-05-2020 01:00:00 5.6 C 77 % 1.89 C
14 15-05-2020 01:05:00 5.6 C 77 % 1.89 C
15 15-05-2020 01:10:00 5.6 C 78 % 2.07 C
16 15-05-2020 01:15:00 5.5 C 78 % 1.98 C
17 15-05-2020 01:20:00 5.5 C 77 % 1.8 C
18 15-05-2020 01:25:00 5.4 C 78 % 1.88 C
19 15-05-2020 01:30:00 5.4 C 78 % 1.88 C
20 15-05-2020 01:35:00 5.4 C 78 % 1.88 C
21 15-05-2020 01:40:00 5.4 C 78 % 1.88 C
22 15-05-2020 01:45:00 5.4 C 78 % 1.88 C
23 15-05-2020 01:50:00 5.3 C 77 % 1.6 C
24 15-05-2020 01:55:00 5.3 C 77 % 1.6 C
25 15-05-2020 02:00:00 5.3 C 78 % 1.78 C
Sensor: Nr:Datum:Temp:Feuchte:Taupunkt:
Aussen-T/F 26 15-05-2020 02:05:00 5.3 C 77 % 1.6 C
27 15-05-2020 02:10:00 5.3 C 77 % 1.6 C
28 15-05-2020 02:15:00 5.2 C 77 % 1.51 C
29 15-05-2020 02:20:00 5.2 C 77 % 1.51 C
30 15-05-2020 02:25:00 5.1 C 77 % 1.41 C
31 15-05-2020 02:30:00 5.1 C 77 % 1.41 C
32 15-05-2020 02:35:00 5.1 C 77 % 1.41 C
33 15-05-2020 02:40:00 5.1 C 77 % 1.41 C
34 15-05-2020 02:45:00 5 C 77 % 1.31 C
35 15-05-2020 02:50:00 4.9 C 78 % 1.39 C
36 15-05-2020 02:55:00 4.9 C 78 % 1.39 C
37 15-05-2020 03:00:00 4.8 C 78 % 1.3 C
38 15-05-2020 03:05:00 4.7 C 79 % 1.38 C
39 15-05-2020 03:10:00 4.7 C 79 % 1.38 C
40 15-05-2020 03:15:00 4.5 C 79 % 1.18 C
41 15-05-2020 03:20:00 4.4 C 80 % 1.26 C
42 15-05-2020 03:25:00 4.3 C 80 % 1.16 C
43 15-05-2020 03:30:00 4.2 C 80 % 1.07 C
44 15-05-2020 03:35:00 4.1 C 81 % 1.14 C
45 15-05-2020 03:40:00 3.9 C 81 % 0.95 C
46 15-05-2020 03:45:00 3.9 C 82 % 1.12 C
47 15-05-2020 03:50:00 3.9 C 82 % 1.12 C
48 15-05-2020 03:55:00 3.8 C 82 % 1.02 C
49 15-05-2020 04:00:00 3.8 C 82 % 1.02 C
50 15-05-2020 04:05:00 3.8 C 82 % 1.02 C
Sensor: Nr:Datum:Temp:Feuchte:Taupunkt:
Aussen-T/F 51 15-05-2020 04:10:00 3.7 C 82 % 0.92 C
52 15-05-2020 04:15:00 3.7 C 83 % 1.09 C
53 15-05-2020 04:20:00 3.7 C 83 % 1.09 C
54 15-05-2020 04:25:00 3.6 C 83 % 0.99 C
55 15-05-2020 04:30:00 3.5 C 83 % 0.89 C
56 15-05-2020 04:35:00 3.4 C 83 % 0.79 C
57 15-05-2020 04:40:00 3.3 C 83 % 0.7 C
58 15-05-2020 04:45:00 3.2 C 84 % 0.76 C
59 15-05-2020 04:50:00 3.1 C 84 % 0.67 C
60 15-05-2020 04:55:00 3 C 84 % 0.57 C
61 15-05-2020 05:00:00 2.9 C 85 % 0.63 C
62 15-05-2020 05:05:00 2.8 C 85 % 0.54 C
63 15-05-2020 05:10:00 2.7 C 85 % 0.44 C
64 15-05-2020 05:15:00 2.7 C 86 % 0.6 C
65 15-05-2020 05:20:00 2.6 C 86 % 0.5 C
66 15-05-2020 05:25:00 2.5 C 87 % 0.56 C
67 15-05-2020 05:30:00 2.4 C 87 % 0.46 C
68 15-05-2020 05:35:00 2.4 C 87 % 0.46 C
69 15-05-2020 05:40:00 2.3 C 87 % 0.36 C
70 15-05-2020 05:45:00 2.3 C 88 % 0.52 C
71 15-05-2020 05:50:00 2.3 C 88 % 0.52 C
72 15-05-2020 05:55:00 2.2 C 88 % 0.42 C
73 15-05-2020 06:00:00 2.2 C 88 % 0.42 C
74 15-05-2020 06:05:00 2.1 C 89 % 0.48 C
75 15-05-2020 06:10:00 2.1 C 89 % 0.48 C
Sensor: Nr:Datum:Temp:Feuchte:Taupunkt:
Aussen-T/F 76 15-05-2020 06:15:00 2.1 C 89 % 0.48 C
77 15-05-2020 06:20:00 2.1 C 89 % 0.48 C
78 15-05-2020 06:25:00 2.1 C 89 % 0.48 C
79 15-05-2020 06:30:00 2.1 C 90 % 0.64 C
80 15-05-2020 06:35:00 2.1 C 90 % 0.64 C
81 15-05-2020 06:40:00 2.2 C 90 % 0.73 C
82 15-05-2020 06:45:00 2.2 C 90 % 0.73 C
83 15-05-2020 06:50:00 2.2 C 90 % 0.73 C
84 15-05-2020 06:55:00 2.3 C 91 % 0.99 C
85 15-05-2020 07:00:00 2.3 C 91 % 0.99 C
86 15-05-2020 07:05:00 2.5 C 91 % 1.18 C
87 15-05-2020 07:10:00 2.7 C 91 % 1.38 C
88 15-05-2020 07:15:00 2.8 C 91 % 1.48 C
89 15-05-2020 07:20:00 2.9 C 90 % 1.43 C
90 15-05-2020 07:25:00 3.1 C 90 % 1.62 C
91 15-05-2020 07:30:00 3.2 C 90 % 1.72 C
92 15-05-2020 07:35:00 3.4 C 90 % 1.92 C
93 15-05-2020 07:40:00 3.6 C 89 % 1.96 C
94 15-05-2020 07:45:00 3.7 C 89 % 2.06 C
95 15-05-2020 07:50:00 3.8 C 88 % 2 C
96 15-05-2020 07:55:00 3.9 C 88 % 2.1 C
97 15-05-2020 08:00:00 4.1 C 88 % 2.3 C
98 15-05-2020 08:05:00 4.2 C 88 % 2.39 C
99 15-05-2020 08:10:00 4.3 C 87 % 2.33 C
100 15-05-2020 08:15:00 4.4 C 87 % 2.43 C
Sensor: Nr:Datum:Temp:Feuchte:Taupunkt:
Aussen-T/F 101 15-05-2020 08:20:00 4.6 C 86 % 2.47 C
102 15-05-2020 08:25:00 4.8 C 86 % 2.66 C
103 15-05-2020 08:30:00 4.9 C 86 % 2.76 C
104 15-05-2020 08:35:00 5.1 C 86 % 2.96 C
105 15-05-2020 08:40:00 5.3 C 84 % 2.82 C
106 15-05-2020 08:45:00 5.7 C 83 % 3.04 C
107 15-05-2020 08:50:00 5.8 C 84 % 3.31 C
108 15-05-2020 08:55:00 5.9 C 83 % 3.24 C
109 15-05-2020 09:00:00 6.1 C 81 % 3.09 C
110 15-05-2020 09:05:00 6.3 C 81 % 3.29 C
111 15-05-2020 09:10:00 6.5 C 80 % 3.31 C
112 15-05-2020 09:15:00 6.7 C 80 % 3.5 C
113 15-05-2020 09:20:00 7.1 C 78 % 3.53 C
114 15-05-2020 09:25:00 7.2 C 78 % 3.63 C
115 15-05-2020 09:30:00 7.3 C 77 % 3.54 C
116 15-05-2020 09:35:00 7.7 C 74 % 3.37 C
117 15-05-2020 09:40:00 8.1 C 71 % 3.17 C
118 15-05-2020 09:45:00 8.5 C 70 % 3.35 C
119 15-05-2020 09:50:00 8.9 C 68 % 3.32 C
120 15-05-2020 09:55:00 9.2 C 67 % 3.4 C
121 15-05-2020 10:00:00 9.3 C 67 % 3.5 C
122 15-05-2020 10:05:00 9.4 C 67 % 3.59 C
123 15-05-2020 10:10:00 9.6 C 65 % 3.35 C
124 15-05-2020 10:15:00 9.9 C 64 % 3.42 C
125 15-05-2020 10:20:00 10.2 C 62 % 3.25 C
Sensor: Nr:Datum:Temp:Feuchte:Taupunkt:
Aussen-T/F 126 15-05-2020 10:25:00 10.4 C 62 % 3.44 C
127 15-05-2020 10:30:00 10.7 C 63 % 3.95 C
128 15-05-2020 10:35:00 10.9 C 61 % 3.69 C
129 15-05-2020 10:40:00 11.1 C 60 % 3.64 C
130 15-05-2020 10:45:00 11.4 C 59 % 3.68 C
131 15-05-2020 10:50:00 11.6 C 60 % 4.11 C
132 15-05-2020 10:55:00 11.7 C 59 % 3.97 C
133 15-05-2020 11:00:00 12 C 60 % 4.49 C
134 15-05-2020 11:05:00 12.2 C 57 % 3.94 C
135 15-05-2020 11:10:00 12.5 C 56 % 3.97 C
136 15-05-2020 11:15:00 12.6 C 55 % 3.81 C
137 15-05-2020 11:20:00 12.6 C 56 % 4.07 C
138 15-05-2020 11:25:00 12.8 C 53 % 3.47 C
139 15-05-2020 11:30:00 12.9 C 53 % 3.56 C
140 15-05-2020 11:35:00 13.1 C 52 % 3.48 C
141 15-05-2020 11:40:00 13.3 C 50 % 3.11 C
142 15-05-2020 11:45:00 13.4 C 49 % 2.92 C
143 15-05-2020 11:50:00 13.6 C 48 % 2.81 C
144 15-05-2020 11:55:00 13.6 C 47 % 2.51 C
145 15-05-2020 12:00:00 13.7 C 46 % 2.3 C
146 15-05-2020 12:05:00 13.8 C 47 % 2.7 C
147 15-05-2020 12:10:00 13.8 C 47 % 2.7 C
148 15-05-2020 12:15:00 13.9 C 46 % 2.49 C
149 15-05-2020 12:20:00 14 C 46 % 2.58 C
150 15-05-2020 12:25:00 14.1 C 45 % 2.36 C
Sensor: Nr:Datum:Temp:Feuchte:Taupunkt:
Aussen-T/F 151 15-05-2020 12:30:00 14.2 C 45 % 2.45 C
152 15-05-2020 12:35:00 14.3 C 44 % 2.23 C
153 15-05-2020 12:40:00 14.2 C 44 % 2.14 C
154 15-05-2020 12:45:00 14.3 C 44 % 2.23 C
155 15-05-2020 12:50:00 14.4 C 44 % 2.32 C
156 15-05-2020 12:55:00 14.5 C 42 % 1.76 C
157 15-05-2020 13:00:00 14.6 C 43 % 2.18 C
158 15-05-2020 13:05:00 14.7 C 43 % 2.27 C
159 15-05-2020 13:10:00 14.8 C 44 % 2.68 C
160 15-05-2020 13:15:00 14.8 C 44 % 2.68 C
161 15-05-2020 13:20:00 14.9 C 45 % 3.09 C
162 15-05-2020 13:25:00 14.9 C 44 % 2.77 C
163 15-05-2020 13:30:00 14.8 C 45 % 3 C
164 15-05-2020 13:35:00 14.8 C 46 % 3.31 C
165 15-05-2020 13:40:00 14.9 C 47 % 3.7 C
166 15-05-2020 13:45:00 15.1 C 44 % 2.95 C
167 15-05-2020 13:50:00 15.3 C 46 % 3.76 C
168 15-05-2020 13:55:00 15.4 C 44 % 3.22 C
169 15-05-2020 14:00:00 15.4 C 44 % 3.22 C
170 15-05-2020 14:05:00 15.5 C 44 % 3.31 C
171 15-05-2020 14:10:00 15.5 C 44 % 3.31 C
172 15-05-2020 14:15:00 15.7 C 43 % 3.17 C
173 15-05-2020 14:20:00 15.9 C 43 % 3.35 C
174 15-05-2020 14:25:00 16 C 43 % 3.44 C
175 15-05-2020 14:30:00 16.2 C 43 % 3.62 C
Sensor: Nr:Datum:Temp:Feuchte:Taupunkt:
Aussen-T/F 176 15-05-2020 14:35:00 16.2 C 42 % 3.29 C
177 15-05-2020 14:40:00 16.3 C 43 % 3.71 C
178 15-05-2020 14:45:00 16.4 C 41 % 3.13 C
179 15-05-2020 14:50:00 16.4 C 42 % 3.47 C
180 15-05-2020 14:55:00 16.6 C 43 % 3.98 C
181 15-05-2020 15:00:00 16.8 C 41 % 3.49 C
182 15-05-2020 15:05:00 16.9 C 40 % 3.23 C
183 15-05-2020 15:10:00 17.1 C 39 % 3.05 C
184 15-05-2020 15:15:00 17.3 C 39 % 3.23 C
185 15-05-2020 15:20:00 17.4 C 38 % 2.95 C
186 15-05-2020 15:25:00 17.6 C 40 % 3.86 C
187 15-05-2020 15:30:00 18 C 38 % 3.49 C
188 15-05-2020 15:35:00 18.1 C 37 % 3.2 C
189 15-05-2020 15:40:00 18.3 C 38 % 3.75 C
190 15-05-2020 15:45:00 18.4 C 36 % 3.08 C
191 15-05-2020 15:50:00 18.7 C 36 % 3.34 C
192 15-05-2020 15:55:00 18.7 C 36 % 3.34 C
193 15-05-2020 16:00:00 18.6 C 36 % 3.25 C
194 15-05-2020 16:05:00 18.5 C 37 % 3.55 C
195 15-05-2020 16:10:00 18.6 C 37 % 3.64 C
196 15-05-2020 16:15:00 18.7 C 36 % 3.34 C
197 15-05-2020 16:20:00 18.8 C 35 % 3.03 C
198 15-05-2020 16:25:00 18.7 C 35 % 2.94 C
199 15-05-2020 16:30:00 18.3 C 35 % 2.59 C
200 15-05-2020 16:35:00 18.3 C 36 % 2.99 C
Sensor: Nr:Datum:Temp:Feuchte:Taupunkt:
Aussen-T/F 201 15-05-2020 16:40:00 18.3 C 35 % 2.59 C
202 15-05-2020 16:45:00 18.4 C 36 % 3.08 C
203 15-05-2020 16:50:00 18.6 C 35 % 2.86 C
204 15-05-2020 16:55:00 18.5 C 34 % 2.36 C
205 15-05-2020 17:00:00 18.4 C 34 % 2.27 C
206 15-05-2020 17:05:00 18.4 C 34 % 2.27 C
207 15-05-2020 17:10:00 18.3 C 33 % 1.77 C
208 15-05-2020 17:15:00 18.2 C 35 % 2.5 C
209 15-05-2020 17:20:00 18.4 C 34 % 2.27 C
210 15-05-2020 17:25:00 18.8 C 33 % 2.21 C
211 15-05-2020 17:30:00 18.8 C 33 % 2.21 C
212 15-05-2020 17:35:00 18.8 C 34 % 2.62 C
213 15-05-2020 17:40:00 19 C 33 % 2.38 C
214 15-05-2020 17:45:00 18.8 C 34 % 2.62 C
215 15-05-2020 17:50:00 18.4 C 34 % 2.27 C
216 15-05-2020 17:55:00 18.3 C 33 % 1.77 C
217 15-05-2020 18:00:00 18.2 C 34 % 2.1 C
218 15-05-2020 18:05:00 18.1 C 35 % 2.42 C
219 15-05-2020 18:10:00 18.1 C 35 % 2.42 C
220 15-05-2020 18:15:00 18 C 34 % 1.92 C
221 15-05-2020 18:20:00 17.9 C 35 % 2.24 C
222 15-05-2020 18:25:00 17.9 C 35 % 2.24 C
223 15-05-2020 18:30:00 18 C 34 % 1.92 C
224 15-05-2020 18:35:00 18.1 C 33 % 1.59 C
225 15-05-2020 18:40:00 18.1 C 33 % 1.59 C
Sensor: Nr:Datum:Temp:Feuchte:Taupunkt:
Aussen-T/F 226 15-05-2020 18:45:00 18.3 C 34 % 2.19 C
227 15-05-2020 18:50:00 18.2 C 33 % 1.68 C
228 15-05-2020 18:55:00 17.8 C 34 % 1.75 C
229 15-05-2020 19:00:00 17.8 C 34 % 1.75 C
230 15-05-2020 19:05:00 17.8 C 34 % 1.75 C
231 15-05-2020 19:10:00 17.8 C 33 % 1.33 C
232 15-05-2020 19:15:00 17.8 C 34 % 1.75 C
233 15-05-2020 19:20:00 17.7 C 34 % 1.66 C
234 15-05-2020 19:25:00 17.6 C 33 % 1.16 C
235 15-05-2020 19:30:00 17.4 C 33 % 0.98 C
236 15-05-2020 19:35:00 17.2 C 34 % 1.22 C
237 15-05-2020 19:40:00 17.1 C 35 % 1.53 C
238 15-05-2020 19:45:00 16.9 C 34 % 0.96 C
239 15-05-2020 19:50:00 16.7 C 35 % 1.18 C
240 15-05-2020 19:55:00 16.5 C 35 % 1.01 C
241 15-05-2020 20:00:00 16.4 C 36 % 1.31 C
242 15-05-2020 20:05:00 16.3 C 37 % 1.6 C
243 15-05-2020 20:10:00 16.3 C 36 % 1.22 C
244 15-05-2020 20:15:00 16.2 C 38 % 1.88 C
245 15-05-2020 20:20:00 16.1 C 37 % 1.42 C
246 15-05-2020 20:25:00 15.9 C 37 % 1.25 C
247 15-05-2020 20:30:00 15.7 C 38 % 1.44 C
248 15-05-2020 20:35:00 15.5 C 38 % 1.26 C
249 15-05-2020 20:40:00 15.3 C 39 % 1.44 C
250 15-05-2020 20:45:00 15.1 C 39 % 1.26 C
Sensor: Nr:Datum:Temp:Feuchte:Taupunkt:
Aussen-T/F 251 15-05-2020 20:50:00 14.9 C 44 % 2.77 C
252 15-05-2020 20:55:00 14.7 C 44 % 2.59 C
253 15-05-2020 21:00:00 14.3 C 47 % 3.15 C
254 15-05-2020 21:05:00 13.8 C 47 % 2.7 C
255 15-05-2020 21:10:00 13.3 C 48 % 2.54 C
256 15-05-2020 21:15:00 13 C 50 % 2.83 C
257 15-05-2020 21:20:00 12.6 C 51 % 2.74 C
258 15-05-2020 21:25:00 12.1 C 53 % 2.82 C
259 15-05-2020 21:30:00 11.7 C 54 % 2.71 C
260 15-05-2020 21:35:00 11.3 C 54 % 2.34 C
261 15-05-2020 21:40:00 11 C 55 % 2.32 C
262 15-05-2020 21:45:00 10.8 C 57 % 2.63 C
263 15-05-2020 21:50:00 10.6 C 57 % 2.45 C
264 15-05-2020 21:55:00 10.9 C 55 % 2.23 C
265 15-05-2020 22:00:00 11.3 C 57 % 3.1 C
266 15-05-2020 22:05:00 11.2 C 57 % 3.01 C
267 15-05-2020 22:10:00 10.9 C 58 % 2.97 C
268 15-05-2020 22:15:00 10.7 C 59 % 3.03 C
269 15-05-2020 22:20:00 10.3 C 60 % 2.89 C
270 15-05-2020 22:25:00 10.1 C 62 % 3.16 C
271 15-05-2020 22:30:00 9.8 C 63 % 3.1 C
272 15-05-2020 22:35:00 9.7 C 64 % 3.23 C
273 15-05-2020 22:40:00 9.5 C 65 % 3.26 C
274 15-05-2020 22:45:00 9.3 C 65 % 3.07 C
275 15-05-2020 22:50:00 9.3 C 66 % 3.28 C
Sensor: Nr:Datum:Temp:Feuchte:Taupunkt:
Aussen-T/F 276 15-05-2020 22:55:00 9.2 C 66 % 3.19 C
277 15-05-2020 23:00:00 9.1 C 67 % 3.31 C
278 15-05-2020 23:05:00 9 C 67 % 3.21 C
279 15-05-2020 23:10:00 8.9 C 67 % 3.12 C
280 15-05-2020 23:15:00 8.9 C 67 % 3.12 C
281 15-05-2020 23:20:00 8.9 C 67 % 3.12 C
282 15-05-2020 23:25:00 9.1 C 67 % 3.31 C
283 15-05-2020 23:30:00 9.2 C 67 % 3.4 C
284 15-05-2020 23:35:00 9.1 C 66 % 3.09 C
285 15-05-2020 23:40:00 8.9 C 67 % 3.12 C
286 15-05-2020 23:45:00 8.8 C 67 % 3.02 C
287 15-05-2020 23:50:00 8.6 C 68 % 3.04 C
288 15-05-2020 23:55:00 8.4 C 68 % 2.85 C
289 16-05-2020 00:00:00 8.2 C 68 % 2.66 C
290 16-05-2020 00:05:00 8.1 C 69 % 2.77 C
291 16-05-2020 00:10:00 8.1 C 69 % 2.77 C
292 16-05-2020 00:15:00 7.9 C 69 % 2.57 C
293 16-05-2020 00:20:00 7.9 C 69 % 2.57 C
294 16-05-2020 00:25:00 7.8 C 70 % 2.68 C
295 16-05-2020 00:30:00 7.7 C 70 % 2.58 C
296 16-05-2020 00:35:00 7.7 C 70 % 2.58 C
297 16-05-2020 00:40:00 7.6 C 71 % 2.69 C
298 16-05-2020 00:45:00 7.5 C 71 % 2.59 C
299 16-05-2020 00:50:00 7.4 C 72 % 2.69 C
300 16-05-2020 00:55:00 7.3 C 72 % 2.6 C
Sensor: Nr:Datum:Temp:Feuchte:Taupunkt:
Aussen-T/F 301 16-05-2020 01:00:00 7.1 C 73 % 2.6 C
302 16-05-2020 01:05:00 6.9 C 74 % 2.6 C
303 16-05-2020 01:10:00 6.8 C 75 % 2.69 C
304 16-05-2020 01:15:00 6.7 C 75 % 2.59 C
305 16-05-2020 01:20:00 6.5 C 76 % 2.58 C
306 16-05-2020 01:25:00 6.3 C 77 % 2.57 C
307 16-05-2020 01:30:00 6.2 C 77 % 2.48 C
308 16-05-2020 01:35:00 5.9 C 78 % 2.37 C
309 16-05-2020 01:40:00 5.8 C 78 % 2.27 C
310 16-05-2020 01:45:00 5.6 C 79 % 2.25 C
311 16-05-2020 01:50:00 5.5 C 79 % 2.16 C
312 16-05-2020 01:55:00 5.3 C 80 % 2.14 C
313 16-05-2020 02:00:00 5.3 C 80 % 2.14 C
314 16-05-2020 02:05:00 5.2 C 80 % 2.04 C
315 16-05-2020 02:10:00 5.1 C 81 % 2.12 C
316 16-05-2020 02:15:00 5 C 81 % 2.02 C
317 16-05-2020 02:20:00 4.9 C 81 % 1.92 C
318 16-05-2020 02:25:00 4.8 C 82 % 1.99 C
319 16-05-2020 02:30:00 4.7 C 82 % 1.9 C
320 16-05-2020 02:35:00 4.7 C 83 % 2.07 C
321 16-05-2020 02:40:00 4.6 C 83 % 1.97 C
322 16-05-2020 02:45:00 4.5 C 83 % 1.87 C
323 16-05-2020 02:50:00 4.4 C 84 % 1.94 C
324 16-05-2020 02:55:00 4.4 C 84 % 1.94 C
325 16-05-2020 03:00:00 4.3 C 84 % 1.84 C
Sensor: Nr:Datum:Temp:Feuchte:Taupunkt:
Aussen-T/F 326 16-05-2020 03:05:00 4.3 C 84 % 1.84 C
327 16-05-2020 03:10:00 4.2 C 84 % 1.74 C
328 16-05-2020 03:15:00 4.2 C 85 % 1.91 C
329 16-05-2020 03:20:00 4.1 C 85 % 1.81 C
330 16-05-2020 03:25:00 4 C 85 % 1.71 C
331 16-05-2020 03:30:00 3.9 C 86 % 1.78 C
332 16-05-2020 03:35:00 3.9 C 86 % 1.78 C
333 16-05-2020 03:40:00 3.8 C 86 % 1.68 C
334 16-05-2020 03:45:00 3.8 C 86 % 1.68 C
335 16-05-2020 03:50:00 3.8 C 86 % 1.68 C
336 16-05-2020 03:55:00 3.7 C 87 % 1.74 C
337 16-05-2020 04:00:00 3.7 C 86 % 1.58 C
338 16-05-2020 04:05:00 3.6 C 87 % 1.64 C
339 16-05-2020 04:10:00 3.6 C 87 % 1.64 C
340 16-05-2020 04:15:00 3.5 C 87 % 1.55 C
341 16-05-2020 04:20:00 3.4 C 87 % 1.45 C
342 16-05-2020 04:25:00 3.4 C 88 % 1.61 C
343 16-05-2020 04:30:00 3.3 C 88 % 1.51 C
344 16-05-2020 04:35:00 3.3 C 88 % 1.51 C
345 16-05-2020 04:40:00 3.2 C 88 % 1.41 C
346 16-05-2020 04:45:00 3.2 C 89 % 1.57 C
347 16-05-2020 04:50:00 3.2 C 89 % 1.57 C
348 16-05-2020 04:55:00 3.1 C 89 % 1.47 C
349 16-05-2020 05:00:00 3.1 C 89 % 1.47 C
350 16-05-2020 05:05:00 3.1 C 89 % 1.47 C
Sensor: Nr:Datum:Temp:Feuchte:Taupunkt:
Aussen-T/F 351 16-05-2020 05:10:00 3 C 89 % 1.37 C
352 16-05-2020 05:15:00 3 C 89 % 1.37 C
353 16-05-2020 05:20:00 2.9 C 90 % 1.43 C
354 16-05-2020 05:25:00 2.9 C 90 % 1.43 C
355 16-05-2020 05:30:00 2.8 C 90 % 1.33 C
356 16-05-2020 05:35:00 2.8 C 90 % 1.33 C
357 16-05-2020 05:40:00 2.8 C 90 % 1.33 C
358 16-05-2020 05:45:00 2.7 C 90 % 1.23 C
359 16-05-2020 05:50:00 2.7 C 90 % 1.23 C
360 16-05-2020 05:55:00 2.6 C 90 % 1.13 C
361 16-05-2020 06:00:00 2.6 C 90 % 1.13 C
362 16-05-2020 06:05:00 2.6 C 91 % 1.28 C
363 16-05-2020 06:10:00 2.6 C 91 % 1.28 C
364 16-05-2020 06:15:00 2.6 C 91 % 1.28 C
365 16-05-2020 06:20:00 2.6 C 91 % 1.28 C
366 16-05-2020 06:25:00 2.6 C 91 % 1.28 C
367 16-05-2020 06:30:00 2.6 C 91 % 1.28 C
368 16-05-2020 06:35:00 2.6 C 91 % 1.28 C
369 16-05-2020 06:40:00 2.6 C 91 % 1.28 C
370 16-05-2020 06:45:00 2.6 C 91 % 1.28 C
371 16-05-2020 06:50:00 2.6 C 91 % 1.28 C
372 16-05-2020 06:55:00 2.6 C 92 % 1.43 C
373 16-05-2020 07:00:00 2.7 C 92 % 1.53 C
374 16-05-2020 07:05:00 2.7 C 92 % 1.53 C
375 16-05-2020 07:10:00 2.7 C 92 % 1.53 C
Sensor: Nr:Datum:Temp:Feuchte:Taupunkt:
Aussen-T/F 376 16-05-2020 07:15:00 2.8 C 92 % 1.63 C
377 16-05-2020 07:20:00 2.8 C 92 % 1.63 C
378 16-05-2020 07:25:00 2.9 C 92 % 1.73 C
379 16-05-2020 07:30:00 3 C 93 % 1.98 C
380 16-05-2020 07:35:00 3.1 C 93 % 2.08 C
381 16-05-2020 07:40:00 3.2 C 92 % 2.03 C
382 16-05-2020 07:45:00 3.2 C 93 % 2.18 C
383 16-05-2020 07:50:00 3.3 C 93 % 2.28 C
384 16-05-2020 07:55:00 3.4 C 93 % 2.38 C
385 16-05-2020 08:00:00 3.6 C 93 % 2.58 C
386 16-05-2020 08:05:00 3.7 C 93 % 2.68 C
387 16-05-2020 08:10:00 3.8 C 93 % 2.77 C
388 16-05-2020 08:15:00 3.9 C 93 % 2.87 C
389 16-05-2020 08:20:00 4 C 93 % 2.97 C
390 16-05-2020 08:25:00 4.1 C 93 % 3.07 C
391 16-05-2020 08:30:00 4.2 C 92 % 3.02 C
392 16-05-2020 08:35:00 4.4 C 93 % 3.37 C
393 16-05-2020 08:40:00 4.6 C 92 % 3.42 C
394 16-05-2020 08:45:00 4.8 C 93 % 3.77 C
395 16-05-2020 08:50:00 5 C 92 % 3.81 C
396 16-05-2020 08:55:00 5.2 C 92 % 4.01 C
397 16-05-2020 09:00:00 5.3 C 92 % 4.11 C
398 16-05-2020 09:05:00 5.5 C 92 % 4.31 C
399 16-05-2020 09:10:00 5.7 C 92 % 4.5 C
400 16-05-2020 09:15:00 5.8 C 92 % 4.6 C
Sensor: Nr:Datum:Temp:Feuchte:Taupunkt:
Aussen-T/F 401 16-05-2020 09:20:00 6 C 91 % 4.65 C
402 16-05-2020 09:25:00 6.2 C 91 % 4.84 C
403 16-05-2020 09:30:00 6.4 C 91 % 5.04 C
404 16-05-2020 09:35:00 6.6 C 90 % 5.08 C
405 16-05-2020 09:40:00 6.8 C 90 % 5.28 C
406 16-05-2020 09:45:00 7.1 C 89 % 5.41 C
407 16-05-2020 09:50:00 7.3 C 88 % 5.45 C
408 16-05-2020 09:55:00 7.5 C 88 % 5.64 C
409 16-05-2020 10:00:00 7.7 C 87 % 5.68 C
410 16-05-2020 10:05:00 7.9 C 85 % 5.54 C
411 16-05-2020 10:10:00 8.3 C 83 % 5.59 C
412 16-05-2020 10:15:00 8.7 C 83 % 5.98 C
413 16-05-2020 10:20:00 9.1 C 80 % 5.84 C
414 16-05-2020 10:25:00 9.6 C 79 % 6.14 C
415 16-05-2020 10:30:00 10.1 C 74 % 5.68 C
416 16-05-2020 10:35:00 10.6 C 73 % 5.97 C
417 16-05-2020 10:40:00 11.1 C 70 % 5.84 C
418 16-05-2020 10:45:00 11.4 C 62 % 4.39 C
419 16-05-2020 10:50:00 11.9 C 59 % 4.15 C
420 16-05-2020 10:55:00 12.1 C 60 % 4.58 C
421 16-05-2020 11:00:00 12.3 C 58 % 4.28 C
422 16-05-2020 11:05:00 12.7 C 57 % 4.41 C
423 16-05-2020 11:10:00 13.1 C 56 % 4.53 C
424 16-05-2020 11:15:00 13.3 C 53 % 3.93 C
425 16-05-2020 11:20:00 13.5 C 52 % 3.85 C
Sensor: Nr:Datum:Temp:Feuchte:Taupunkt:
Aussen-T/F 426 16-05-2020 11:25:00 13.7 C 53 % 4.31 C
427 16-05-2020 11:30:00 13.8 C 51 % 3.85 C
428 16-05-2020 11:35:00 13.8 C 50 % 3.57 C
429 16-05-2020 11:40:00 13.9 C 51 % 3.94 C
430 16-05-2020 11:45:00 14.2 C 51 % 4.22 C
431 16-05-2020 11:50:00 14.4 C 50 % 4.12 C
432 16-05-2020 11:55:00 14.3 C 48 % 3.45 C
433 16-05-2020 12:00:00 14.3 C 50 % 4.03 C
434 16-05-2020 12:05:00 14.4 C 49 % 3.83 C
435 16-05-2020 12:10:00 14.6 C 48 % 3.73 C
436 16-05-2020 12:15:00 14.6 C 47 % 3.43 C
437 16-05-2020 12:20:00 14.6 C 47 % 3.43 C
438 16-05-2020 12:25:00 14.6 C 49 % 4.02 C
439 16-05-2020 12:30:00 14.7 C 47 % 3.52 C
440 16-05-2020 12:35:00 14.7 C 48 % 3.82 C
441 16-05-2020 12:40:00 14.7 C 48 % 3.82 C
442 16-05-2020 12:45:00 14.8 C 48 % 3.91 C
443 16-05-2020 12:50:00 14.9 C 47 % 3.7 C
444 16-05-2020 12:55:00 14.9 C 46 % 3.4 C
445 16-05-2020 13:00:00 14.9 C 46 % 3.4 C
446 16-05-2020 13:05:00 15.1 C 46 % 3.58 C
447 16-05-2020 13:10:00 15.1 C 47 % 3.88 C
448 16-05-2020 13:15:00 15.3 C 47 % 4.07 C
449 16-05-2020 13:20:00 15.5 C 46 % 3.94 C
450 16-05-2020 13:25:00 15.7 C 45 % 3.81 C
Sensor: Nr:Datum:Temp:Feuchte:Taupunkt:
Aussen-T/F 451 16-05-2020 13:30:00 15.8 C 45 % 3.9 C
452 16-05-2020 13:35:00 15.9 C 44 % 3.68 C
453 16-05-2020 13:40:00 16 C 44 % 3.77 C
454 16-05-2020 13:45:00 16.1 C 44 % 3.86 C
455 16-05-2020 13:50:00 16.2 C 45 % 4.27 C
456 16-05-2020 13:55:00 16.3 C 44 % 4.04 C
457 16-05-2020 14:00:00 16.5 C 43 % 3.89 C
458 16-05-2020 14:05:00 16.6 C 43 % 3.98 C
459 16-05-2020 14:10:00 16.7 C 44 % 4.4 C
460 16-05-2020 14:15:00 16.8 C 43 % 4.16 C
461 16-05-2020 14:20:00 16.7 C 41 % 3.4 C
462 16-05-2020 14:25:00 16.7 C 42 % 3.74 C
463 16-05-2020 14:30:00 16.8 C 43 % 4.16 C
464 16-05-2020 14:35:00 17.2 C 41 % 3.85 C
465 16-05-2020 14:40:00 17.4 C 40 % 3.68 C
466 16-05-2020 14:45:00 17.5 C 39 % 3.41 C
467 16-05-2020 14:50:00 17.7 C 40 % 3.95 C
468 16-05-2020 14:55:00 17.8 C 37 % 2.93 C
469 16-05-2020 15:00:00 17.8 C 36 % 2.55 C
470 16-05-2020 15:05:00 17.8 C 36 % 2.55 C
471 16-05-2020 15:10:00 17.9 C 37 % 3.02 C
472 16-05-2020 15:15:00 18 C 38 % 3.49 C
473 16-05-2020 15:20:00 18.3 C 36 % 2.99 C
474 16-05-2020 15:25:00 18.7 C 36 % 3.34 C
475 16-05-2020 15:30:00 18.8 C 36 % 3.43 C
Sensor: Nr:Datum:Temp:Feuchte:Taupunkt:
Aussen-T/F 476 16-05-2020 15:35:00 18.9 C 36 % 3.52 C
477 16-05-2020 15:40:00 19.1 C 36 % 3.7 C
478 16-05-2020 15:45:00 19.3 C 35 % 3.47 C
479 16-05-2020 15:50:00 19.3 C 34 % 3.06 C
480 16-05-2020 15:55:00 19.3 C 34 % 3.06 C
481 16-05-2020 16:00:00 19.2 C 37 % 4.17 C
482 16-05-2020 16:05:00 19.3 C 37 % 4.26 C
483 16-05-2020 16:10:00 19.5 C 36 % 4.05 C
484 16-05-2020 16:15:00 19.8 C 36 % 4.31 C
485 16-05-2020 16:20:00 19.7 C 36 % 4.23 C
486 16-05-2020 16:25:00 20.3 C 39 % 5.9 C
487 16-05-2020 16:30:00 20.9 C 35 % 4.88 C
488 16-05-2020 16:35:00 20.7 C 33 % 3.87 C
489 16-05-2020 16:40:00 20 C 35 % 4.09 C
490 16-05-2020 16:45:00 19.9 C 35 % 4 C
491 16-05-2020 16:50:00 19.7 C 35 % 3.82 C
492 16-05-2020 16:55:00 19.3 C 36 % 3.87 C
493 16-05-2020 17:00:00 19.2 C 39 % 4.92 C
494 16-05-2020 17:05:00 19.2 C 37 % 4.17 C
495 16-05-2020 17:10:00 18.9 C 38 % 4.29 C
496 16-05-2020 17:15:00 18.8 C 38 % 4.2 C
497 16-05-2020 17:20:00 18.8 C 40 % 4.93 C
498 16-05-2020 17:25:00 18.8 C 39 % 4.57 C
499 16-05-2020 17:30:00 18.8 C 39 % 4.57 C
500 16-05-2020 17:35:00 18.8 C 39 % 4.57 C
Sensor: Nr:Datum:Temp:Feuchte:Taupunkt:
Aussen-T/F 501 16-05-2020 17:40:00 18.8 C 40 % 4.93 C
502 16-05-2020 17:45:00 18.8 C 39 % 4.57 C
503 16-05-2020 17:50:00 18.8 C 40 % 4.93 C
504 16-05-2020 17:55:00 18.8 C 38 % 4.2 C
505 16-05-2020 18:00:00 18.7 C 39 % 4.48 C
506 16-05-2020 18:05:00 18.8 C 38 % 4.2 C
507 16-05-2020 18:10:00 18.9 C 38 % 4.29 C
508 16-05-2020 18:15:00 19.1 C 38 % 4.46 C
509 16-05-2020 18:20:00 19.2 C 39 % 4.92 C
510 16-05-2020 18:25:00 19.1 C 38 % 4.46 C
511 16-05-2020 18:30:00 19.1 C 39 % 4.84 C
512 16-05-2020 18:35:00 19.6 C 38 % 4.91 C
513 16-05-2020 18:40:00 20.1 C 38 % 5.35 C
514 16-05-2020 18:45:00 20.3 C 35 % 4.35 C
515 16-05-2020 18:50:00 20.2 C 37 % 5.06 C
516 16-05-2020 18:55:00 19.9 C 37 % 4.79 C
517 16-05-2020 19:00:00 19.4 C 38 % 4.73 C
518 16-05-2020 19:05:00 19.2 C 38 % 4.55 C
519 16-05-2020 19:10:00 18.9 C 40 % 5.02 C
520 16-05-2020 19:15:00 18.6 C 40 % 4.75 C
521 16-05-2020 19:20:00 18.4 C 43 % 5.61 C
522 16-05-2020 19:25:00 18.3 C 42 % 5.18 C
523 16-05-2020 19:30:00 18.3 C 41 % 4.83 C
524 16-05-2020 19:35:00 18.3 C 41 % 4.83 C
525 16-05-2020 19:40:00 18.4 C 41 % 4.92 C
Sensor: Nr:Datum:Temp:Feuchte:Taupunkt:
Aussen-T/F 526 16-05-2020 19:45:00 18.4 C 40 % 4.57 C
527 16-05-2020 19:50:00 18.4 C 42 % 5.27 C
528 16-05-2020 19:55:00 18.4 C 42 % 5.27 C
529 16-05-2020 20:00:00 18.4 C 42 % 5.27 C
530 16-05-2020 20:05:00 18.3 C 43 % 5.52 C
531 16-05-2020 20:10:00 18.2 C 43 % 5.43 C
532 16-05-2020 20:15:00 18 C 44 % 5.58 C
533 16-05-2020 20:20:00 17.8 C 42 % 4.73 C
534 16-05-2020 20:25:00 17.7 C 44 % 5.31 C
535 16-05-2020 20:30:00 17.6 C 43 % 4.89 C
536 16-05-2020 20:35:00 17.3 C 44 % 4.94 C
537 16-05-2020 20:40:00 17.2 C 45 % 5.18 C
538 16-05-2020 20:45:00 16.9 C 45 % 4.9 C
539 16-05-2020 20:50:00 16.8 C 51 % 6.62 C
540 16-05-2020 20:55:00 16.3 C 52 % 6.44 C
541 16-05-2020 21:00:00 15.7 C 54 % 6.43 C
542 16-05-2020 21:05:00 15.2 C 54 % 5.96 C
543 16-05-2020 21:10:00 14.7 C 56 % 6.02 C
544 16-05-2020 21:15:00 14.5 C 56 % 5.84 C
545 16-05-2020 21:20:00 14.4 C 57 % 6 C
546 16-05-2020 21:25:00 14.3 C 57 % 5.91 C
547 16-05-2020 21:30:00 14.2 C 58 % 6.06 C
548 16-05-2020 21:35:00 14 C 59 % 6.12 C
549 16-05-2020 21:40:00 13.8 C 60 % 6.18 C
550 16-05-2020 21:45:00 13.7 C 60 % 6.09 C
Sensor: Nr:Datum:Temp:Feuchte:Taupunkt:
Aussen-T/F 551 16-05-2020 21:50:00 13.5 C 62 % 6.37 C
552 16-05-2020 21:55:00 13.4 C 62 % 6.28 C
553 16-05-2020 22:00:00 13.3 C 62 % 6.18 C
554 16-05-2020 22:05:00 13.2 C 61 % 5.85 C
555 16-05-2020 22:10:00 13.1 C 62 % 5.99 C
556 16-05-2020 22:15:00 12.9 C 62 % 5.8 C
557 16-05-2020 22:20:00 12.9 C 62 % 5.8 C
558 16-05-2020 22:25:00 12.8 C 62 % 5.71 C
559 16-05-2020 22:30:00 12.8 C 62 % 5.71 C
560 16-05-2020 22:35:00 12.7 C 62 % 5.62 C
561 16-05-2020 22:40:00 12.6 C 63 % 5.75 C
562 16-05-2020 22:45:00 12.6 C 63 % 5.75 C
563 16-05-2020 22:50:00 12.5 C 63 % 5.66 C
564 16-05-2020 22:55:00 12.4 C 64 % 5.79 C
565 16-05-2020 23:00:00 12.3 C 66 % 6.14 C
566 16-05-2020 23:05:00 12.2 C 66 % 6.04 C
567 16-05-2020 23:10:00 12 C 65 % 5.63 C
568 16-05-2020 23:15:00 12.2 C 65 % 5.82 C
569 16-05-2020 23:20:00 12.3 C 64 % 5.69 C
570 16-05-2020 23:25:00 12.4 C 64 % 5.79 C
571 16-05-2020 23:30:00 12.4 C 64 % 5.79 C
572 16-05-2020 23:35:00 12.4 C 64 % 5.79 C
573 16-05-2020 23:40:00 12.2 C 66 % 6.04 C
574 16-05-2020 23:45:00 12 C 67 % 6.07 C
575 16-05-2020 23:50:00 11.8 C 67 % 5.88 C
Sensor: Nr:Datum:Temp:Feuchte:Taupunkt:
Aussen-T/F 576 16-05-2020 23:55:00 11.8 C 68 % 6.09 C
577 17-05-2020 00:00:00 11.7 C 67 % 5.78 C
578 17-05-2020 00:05:00 11.7 C 68 % 6 C
579 17-05-2020 00:10:00 11.8 C 67 % 5.88 C
580 17-05-2020 00:15:00 11.8 C 68 % 6.09 C
581 17-05-2020 00:20:00 11.7 C 68 % 6 C
582 17-05-2020 00:25:00 11.5 C 69 % 6.02 C
583 17-05-2020 00:30:00 11.3 C 69 % 5.83 C
584 17-05-2020 00:35:00 11.2 C 70 % 5.94 C
585 17-05-2020 00:40:00 11.1 C 71 % 6.05 C
586 17-05-2020 00:45:00 10.8 C 71 % 5.76 C
587 17-05-2020 00:50:00 10.7 C 72 % 5.87 C
588 17-05-2020 00:55:00 10.5 C 73 % 5.87 C
589 17-05-2020 01:00:00 10.4 C 73 % 5.78 C
590 17-05-2020 01:05:00 10.3 C 74 % 5.88 C
591 17-05-2020 01:10:00 10.2 C 74 % 5.78 C
592 17-05-2020 01:15:00 10.2 C 74 % 5.78 C
593 17-05-2020 01:20:00 10 C 74 % 5.59 C
594 17-05-2020 01:25:00 9.9 C 75 % 5.68 C
595 17-05-2020 01:30:00 9.8 C 76 % 5.78 C
596 17-05-2020 01:35:00 9.7 C 76 % 5.68 C
597 17-05-2020 01:40:00 9.6 C 76 % 5.58 C
598 17-05-2020 01:45:00 9.5 C 76 % 5.49 C
599 17-05-2020 01:50:00 9.4 C 76 % 5.39 C
600 17-05-2020 01:55:00 9.3 C 77 % 5.48 C
Sensor: Nr:Datum:Temp:Feuchte:Taupunkt:
Aussen-T/F 601 17-05-2020 02:00:00 9.2 C 77 % 5.38 C
602 17-05-2020 02:05:00 9.2 C 77 % 5.38 C
603 17-05-2020 02:10:00 9.1 C 77 % 5.29 C
604 17-05-2020 02:15:00 9.1 C 78 % 5.47 C
605 17-05-2020 02:20:00 9.1 C 78 % 5.47 C
606 17-05-2020 02:25:00 9.2 C 77 % 5.38 C
607 17-05-2020 02:30:00 9.3 C 77 % 5.48 C
608 17-05-2020 02:35:00 9.3 C 77 % 5.48 C
609 17-05-2020 02:40:00 9.2 C 77 % 5.38 C
610 17-05-2020 02:45:00 9.1 C 77 % 5.29 C
611 17-05-2020 02:50:00 9 C 78 % 5.38 C
612 17-05-2020 02:55:00 8.9 C 79 % 5.46 C
613 17-05-2020 03:00:00 8.8 C 79 % 5.36 C
614 17-05-2020 03:05:00 8.7 C 80 % 5.45 C
615 17-05-2020 03:10:00 8.6 C 81 % 5.53 C
616 17-05-2020 03:15:00 8.6 C 81 % 5.53 C
617 17-05-2020 03:20:00 8.6 C 81 % 5.53 C
618 17-05-2020 03:25:00 8.6 C 81 % 5.53 C
619 17-05-2020 03:30:00 8.6 C 81 % 5.53 C
620 17-05-2020 03:35:00 8.6 C 82 % 5.71 C
621 17-05-2020 03:40:00 8.5 C 82 % 5.61 C
622 17-05-2020 03:45:00 8.6 C 82 % 5.71 C
623 17-05-2020 03:50:00 8.7 C 82 % 5.8 C
624 17-05-2020 03:55:00 8.6 C 81 % 5.53 C
625 17-05-2020 04:00:00 8.6 C 82 % 5.71 C
Sensor: Nr:Datum:Temp:Feuchte:Taupunkt:
Aussen-T/F 626 17-05-2020 04:05:00 8.6 C 82 % 5.71 C
627 17-05-2020 04:10:00 8.6 C 82 % 5.71 C
628 17-05-2020 04:15:00 8.5 C 82 % 5.61 C
629 17-05-2020 04:20:00 8.4 C 82 % 5.51 C
630 17-05-2020 04:25:00 8.4 C 83 % 5.69 C
631 17-05-2020 04:30:00 8.3 C 83 % 5.59 C
632 17-05-2020 04:35:00 8.2 C 83 % 5.49 C
633 17-05-2020 04:40:00 8.1 C 83 % 5.39 C
634 17-05-2020 04:45:00 7.9 C 84 % 5.37 C
635 17-05-2020 04:50:00 7.8 C 84 % 5.27 C
636 17-05-2020 04:55:00 7.7 C 85 % 5.34 C
637 17-05-2020 05:00:00 7.6 C 85 % 5.24 C
638 17-05-2020 05:05:00 7.5 C 85 % 5.15 C
639 17-05-2020 05:10:00 7.4 C 86 % 5.22 C
640 17-05-2020 05:15:00 7.3 C 86 % 5.12 C
641 17-05-2020 05:20:00 7.3 C 86 % 5.12 C
642 17-05-2020 05:25:00 7.2 C 87 % 5.19 C
643 17-05-2020 05:30:00 7.2 C 87 % 5.19 C
644 17-05-2020 05:35:00 7.1 C 87 % 5.09 C
645 17-05-2020 05:40:00 7.1 C 87 % 5.09 C
646 17-05-2020 05:45:00 6.9 C 87 % 4.89 C
647 17-05-2020 05:50:00 6.8 C 87 % 4.79 C
648 17-05-2020 05:55:00 6.8 C 87 % 4.79 C
649 17-05-2020 06:00:00 6.8 C 87 % 4.79 C
650 17-05-2020 06:05:00 6.7 C 87 % 4.69 C
Sensor: Nr:Datum:Temp:Feuchte:Taupunkt:
Aussen-T/F 651 17-05-2020 06:10:00 6.7 C 88 % 4.86 C
652 17-05-2020 06:15:00 6.7 C 88 % 4.86 C
653 17-05-2020 06:20:00 6.7 C 88 % 4.86 C
654 17-05-2020 06:25:00 6.7 C 88 % 4.86 C
655 17-05-2020 06:30:00 6.7 C 88 % 4.86 C
656 17-05-2020 06:35:00 6.7 C 88 % 4.86 C
657 17-05-2020 06:40:00 6.7 C 88 % 4.86 C
658 17-05-2020 06:45:00 6.7 C 88 % 4.86 C
659 17-05-2020 06:50:00 6.7 C 88 % 4.86 C
660 17-05-2020 06:55:00 6.7 C 88 % 4.86 C
661 17-05-2020 07:00:00 6.8 C 89 % 5.12 C
662 17-05-2020 07:05:00 6.8 C 89 % 5.12 C
663 17-05-2020 07:10:00 6.9 C 89 % 5.22 C
664 17-05-2020 07:15:00 7 C 88 % 5.15 C
665 17-05-2020 07:20:00 7 C 88 % 5.15 C
666 17-05-2020 07:25:00 6.9 C 88 % 5.05 C
667 17-05-2020 07:30:00 6.9 C 88 % 5.05 C
668 17-05-2020 07:35:00 6.9 C 89 % 5.22 C
669 17-05-2020 07:40:00 6.9 C 89 % 5.22 C
670 17-05-2020 07:45:00 7 C 89 % 5.31 C
671 17-05-2020 07:50:00 7 C 89 % 5.31 C
672 17-05-2020 07:55:00 7.1 C 89 % 5.41 C
673 17-05-2020 08:00:00 7.1 C 89 % 5.41 C
674 17-05-2020 08:05:00 7.2 C 89 % 5.51 C
675 17-05-2020 08:10:00 7.2 C 89 % 5.51 C
Sensor: Nr:Datum:Temp:Feuchte:Taupunkt:
Aussen-T/F 676 17-05-2020 08:15:00 7.3 C 89 % 5.61 C
677 17-05-2020 08:20:00 7.3 C 89 % 5.61 C
678 17-05-2020 08:25:00 7.4 C 89 % 5.71 C
679 17-05-2020 08:30:00 7.4 C 89 % 5.71 C
680 17-05-2020 08:35:00 7.5 C 89 % 5.81 C
681 17-05-2020 08:40:00 7.6 C 89 % 5.91 C
682 17-05-2020 08:45:00 7.8 C 89 % 6.1 C
683 17-05-2020 08:50:00 7.9 C 88 % 6.04 C
684 17-05-2020 08:55:00 8.2 C 88 % 6.33 C
685 17-05-2020 09:00:00 8.4 C 87 % 6.37 C
686 17-05-2020 09:05:00 8.7 C 85 % 6.32 C
687 17-05-2020 09:10:00 9.1 C 83 % 6.37 C
688 17-05-2020 09:15:00 9.3 C 82 % 6.39 C
689 17-05-2020 09:20:00 9.6 C 80 % 6.32 C
690 17-05-2020 09:25:00 9.9 C 79 % 6.43 C
691 17-05-2020 09:30:00 10.2 C 78 % 6.54 C
692 17-05-2020 09:35:00 10.4 C 77 % 6.55 C
693 17-05-2020 09:40:00 10.7 C 75 % 6.46 C
694 17-05-2020 09:45:00 10.9 C 73 % 6.26 C
695 17-05-2020 09:50:00 11.2 C 70 % 5.94 C
696 17-05-2020 09:55:00 11.2 C 69 % 5.73 C
697 17-05-2020 10:00:00 11.3 C 68 % 5.62 C
698 17-05-2020 10:05:00 11.4 C 68 % 5.71 C
699 17-05-2020 10:10:00 11.6 C 68 % 5.9 C
700 17-05-2020 10:15:00 11.7 C 69 % 6.21 C
Sensor: Nr:Datum:Temp:Feuchte:Taupunkt:
Aussen-T/F 701 17-05-2020 10:20:00 11.9 C 66 % 5.76 C
702 17-05-2020 10:25:00 12.2 C 65 % 5.82 C
703 17-05-2020 10:30:00 12.4 C 66 % 6.23 C
704 17-05-2020 10:35:00 12.6 C 65 % 6.2 C
705 17-05-2020 10:40:00 12.8 C 63 % 5.94 C
706 17-05-2020 10:45:00 12.9 C 62 % 5.8 C
707 17-05-2020 10:50:00 12.9 C 63 % 6.04 C
708 17-05-2020 10:55:00 12.9 C 61 % 5.57 C
709 17-05-2020 11:00:00 12.9 C 62 % 5.8 C
710 17-05-2020 11:05:00 12.9 C 62 % 5.8 C
711 17-05-2020 11:10:00 13.1 C 61 % 5.76 C
712 17-05-2020 11:15:00 13.1 C 61 % 5.76 C
713 17-05-2020 11:20:00 13.1 C 60 % 5.52 C
714 17-05-2020 11:25:00 13.1 C 61 % 5.76 C
715 17-05-2020 11:30:00 13.2 C 61 % 5.85 C
716 17-05-2020 11:35:00 13.3 C 61 % 5.95 C
717 17-05-2020 11:40:00 13.4 C 62 % 6.28 C
718 17-05-2020 11:45:00 13.4 C 61 % 6.04 C
719 17-05-2020 11:50:00 13.6 C 61 % 6.23 C
720 17-05-2020 11:55:00 13.7 C 59 % 5.84 C
721 17-05-2020 12:00:00 13.7 C 58 % 5.6 C
722 17-05-2020 12:05:00 13.8 C 58 % 5.69 C
723 17-05-2020 12:10:00 14 C 57 % 5.63 C
724 17-05-2020 12:15:00 14.2 C 57 % 5.81 C
725 17-05-2020 12:20:00 14.3 C 56 % 5.65 C
Sensor: Nr:Datum:Temp:Feuchte:Taupunkt:
Aussen-T/F 726 17-05-2020 12:25:00 14.3 C 56 % 5.65 C
727 17-05-2020 12:30:00 14.2 C 56 % 5.56 C
728 17-05-2020 12:35:00 14.3 C 57 % 5.91 C
729 17-05-2020 12:40:00 14.4 C 57 % 6 C
730 17-05-2020 12:45:00 14.7 C 55 % 5.76 C
731 17-05-2020 12:50:00 14.6 C 55 % 5.67 C
732 17-05-2020 12:55:00 14.6 C 56 % 5.93 C
733 17-05-2020 13:00:00 14.6 C 55 % 5.67 C
734 17-05-2020 13:05:00 14.8 C 56 % 6.12 C
735 17-05-2020 13:10:00 14.9 C 53 % 5.42 C
736 17-05-2020 13:15:00 15.1 C 52 % 5.33 C
737 17-05-2020 13:20:00 15.3 C 52 % 5.51 C
738 17-05-2020 13:25:00 15.4 C 52 % 5.61 C
739 17-05-2020 13:30:00 15.4 C 51 % 5.33 C
740 17-05-2020 13:35:00 15.6 C 52 % 5.79 C
741 17-05-2020 13:40:00 15.7 C 51 % 5.6 C
742 17-05-2020 13:45:00 15.8 C 51 % 5.69 C
743 17-05-2020 13:50:00 15.8 C 52 % 5.97 C
744 17-05-2020 13:55:00 15.9 C 51 % 5.79 C
745 17-05-2020 14:00:00 16.2 C 49 % 5.49 C
746 17-05-2020 14:05:00 16.3 C 49 % 5.58 C
747 17-05-2020 14:10:00 16.4 C 50 % 5.96 C
748 17-05-2020 14:15:00 16.6 C 48 % 5.56 C
749 17-05-2020 14:20:00 16.6 C 47 % 5.25 C
750 17-05-2020 14:25:00 16.8 C 47 % 5.44 C
Sensor: Nr:Datum:Temp:Feuchte:Taupunkt:
Aussen-T/F 751 17-05-2020 14:30:00 16.9 C 47 % 5.53 C
752 17-05-2020 14:35:00 16.9 C 47 % 5.53 C
753 17-05-2020 14:40:00 17.1 C 47 % 5.71 C
754 17-05-2020 14:45:00 17.4 C 46 % 5.67 C
755 17-05-2020 14:50:00 17.5 C 43 % 4.8 C
756 17-05-2020 14:55:00 17.5 C 46 % 5.76 C
757 17-05-2020 15:00:00 17.8 C 44 % 5.4 C
758 17-05-2020 15:05:00 17.9 C 43 % 5.16 C
759 17-05-2020 15:10:00 18 C 41 % 4.57 C
760 17-05-2020 15:15:00 18.1 C 41 % 4.66 C
761 17-05-2020 15:20:00 18.1 C 43 % 5.34 C
762 17-05-2020 15:25:00 18.3 C 40 % 4.48 C
763 17-05-2020 15:30:00 18.6 C 41 % 5.1 C
764 17-05-2020 15:35:00 19.2 C 42 % 5.99 C
765 17-05-2020 15:40:00 19.5 C 40 % 5.56 C
766 17-05-2020 15:45:00 19.4 C 40 % 5.47 C
767 17-05-2020 15:50:00 19.4 C 40 % 5.47 C
768 17-05-2020 15:55:00 19.2 C 41 % 5.64 C
769 17-05-2020 16:00:00 19.2 C 41 % 5.64 C
770 17-05-2020 16:05:00 19.3 C 40 % 5.38 C
771 17-05-2020 16:10:00 19.4 C 41 % 5.82 C
772 17-05-2020 16:15:00 19.8 C 39 % 5.46 C
773 17-05-2020 16:20:00 20 C 38 % 5.26 C
774 17-05-2020 16:25:00 20.2 C 38 % 5.44 C
775 17-05-2020 16:30:00 20.4 C 36 % 4.84 C
Sensor: Nr:Datum:Temp:Feuchte:Taupunkt:
Aussen-T/F 776 17-05-2020 16:35:00 20.7 C 36 % 5.11 C
777 17-05-2020 16:40:00 20.7 C 35 % 4.7 C
778 17-05-2020 16:45:00 20.7 C 35 % 4.7 C
779 17-05-2020 16:50:00 20.6 C 35 % 4.62 C
780 17-05-2020 16:55:00 20.6 C 35 % 4.62 C
781 17-05-2020 17:00:00 20.7 C 34 % 4.29 C
782 17-05-2020 17:05:00 20.3 C 34 % 3.94 C
783 17-05-2020 17:10:00 20.4 C 35 % 4.44 C
784 17-05-2020 17:15:00 20.8 C 35 % 4.79 C
785 17-05-2020 17:20:00 20.8 C 34 % 4.38 C
786 17-05-2020 17:25:00 20.8 C 33 % 3.95 C
787 17-05-2020 17:30:00 20.8 C 34 % 4.38 C
788 17-05-2020 17:35:00 20.9 C 34 % 4.47 C
789 17-05-2020 17:40:00 20.7 C 35 % 4.7 C
790 17-05-2020 17:45:00 20.5 C 36 % 4.93 C
791 17-05-2020 17:50:00 20.7 C 36 % 5.11 C
792 17-05-2020 17:55:00 20.9 C 36 % 5.28 C
793 17-05-2020 18:00:00 21.1 C 35 % 5.06 C
794 17-05-2020 18:05:00 21.1 C 35 % 5.06 C
795 17-05-2020 18:10:00 21 C 35 % 4.97 C
796 17-05-2020 18:15:00 21.1 C 36 % 5.46 C
797 17-05-2020 18:20:00 21.2 C 35 % 5.14 C
798 17-05-2020 18:25:00 20.7 C 36 % 5.11 C
799 17-05-2020 18:30:00 20.7 C 36 % 5.11 C
800 17-05-2020 18:35:00 20.9 C 37 % 5.68 C
Sensor: Nr:Datum:Temp:Feuchte:Taupunkt:
Aussen-T/F 801 17-05-2020 18:40:00 21.2 C 37 % 5.94 C
802 17-05-2020 18:45:00 21.1 C 35 % 5.06 C
803 17-05-2020 18:50:00 20.8 C 35 % 4.79 C
804 17-05-2020 18:55:00 20.6 C 35 % 4.62 C
805 17-05-2020 19:00:00 20.4 C 36 % 4.84 C
806 17-05-2020 19:05:00 20.6 C 37 % 5.41 C
807 17-05-2020 19:10:00 20.7 C 37 % 5.5 C
808 17-05-2020 19:15:00 20.6 C 36 % 5.02 C
809 17-05-2020 19:20:00 20.4 C 36 % 4.84 C
810 17-05-2020 19:25:00 20 C 37 % 4.88 C
811 17-05-2020 19:30:00 19.8 C 38 % 5.09 C
812 17-05-2020 19:35:00 19.8 C 38 % 5.09 C
813 17-05-2020 19:40:00 19.6 C 38 % 4.91 C
814 17-05-2020 19:45:00 19.4 C 39 % 5.1 C
815 17-05-2020 19:50:00 19.4 C 39 % 5.1 C
816 17-05-2020 19:55:00 19.4 C 40 % 5.47 C
817 17-05-2020 20:00:00 19.3 C 40 % 5.38 C
818 17-05-2020 20:05:00 19.2 C 41 % 5.64 C
819 17-05-2020 20:10:00 19.1 C 40 % 5.2 C
820 17-05-2020 20:15:00 18.9 C 41 % 5.37 C
821 17-05-2020 20:20:00 18.7 C 42 % 5.54 C
822 17-05-2020 20:25:00 18.6 C 42 % 5.45 C
823 17-05-2020 20:30:00 18.4 C 42 % 5.27 C
824 17-05-2020 20:35:00 18.3 C 43 % 5.52 C
825 17-05-2020 20:40:00 18.2 C 44 % 5.76 C
Sensor: Nr:Datum:Temp:Feuchte:Taupunkt:
Aussen-T/F 826 17-05-2020 20:45:00 18 C 49 % 7.14 C
827 17-05-2020 20:50:00 17.7 C 50 % 7.16 C
828 17-05-2020 20:55:00 17.2 C 52 % 7.27 C
829 17-05-2020 21:00:00 16.7 C 53 % 7.08 C
830 17-05-2020 21:05:00 16.1 C 54 % 6.8 C
831 17-05-2020 21:10:00 15.7 C 55 % 6.69 C
832 17-05-2020 21:15:00 15.3 C 56 % 6.58 C
833 17-05-2020 21:20:00 14.9 C 56 % 6.21 C
834 17-05-2020 21:25:00 14.7 C 57 % 6.28 C
835 17-05-2020 21:30:00 14.4 C 58 % 6.25 C
836 17-05-2020 21:35:00 14.2 C 58 % 6.06 C
837 17-05-2020 21:40:00 14 C 59 % 6.12 C
838 17-05-2020 21:45:00 13.8 C 60 % 6.18 C
839 17-05-2020 21:50:00 13.7 C 60 % 6.09 C
840 17-05-2020 21:55:00 13.6 C 60 % 5.99 C
841 17-05-2020 22:00:00 13.5 C 60 % 5.9 C
842 17-05-2020 22:05:00 13.4 C 60 % 5.8 C
843 17-05-2020 22:10:00 13.4 C 60 % 5.8 C
844 17-05-2020 22:15:00 13.3 C 61 % 5.95 C
845 17-05-2020 22:20:00 13.3 C 61 % 5.95 C
846 17-05-2020 22:25:00 13.2 C 62 % 6.09 C
847 17-05-2020 22:30:00 13.1 C 63 % 6.22 C
848 17-05-2020 22:35:00 12.9 C 63 % 6.04 C
849 17-05-2020 22:40:00 12.7 C 64 % 6.07 C
850 17-05-2020 22:45:00 12.6 C 64 % 5.98 C
Sensor: Nr:Datum:Temp:Feuchte:Taupunkt:
Aussen-T/F 851 17-05-2020 22:50:00 12.4 C 67 % 6.45 C
852 17-05-2020 22:55:00 12.1 C 67 % 6.17 C
853 17-05-2020 23:00:00 11.8 C 69 % 6.31 C
854 17-05-2020 23:05:00 11.5 C 70 % 6.23 C
855 17-05-2020 23:10:00 11.3 C 71 % 6.24 C
856 17-05-2020 23:15:00 11.1 C 71 % 6.05 C
857 17-05-2020 23:20:00 10.9 C 72 % 6.06 C
858 17-05-2020 23:25:00 10.7 C 72 % 5.87 C
859 17-05-2020 23:30:00 10.6 C 73 % 5.97 C
860 17-05-2020 23:35:00 10.4 C 74 % 5.97 C
861 17-05-2020 23:40:00 10.3 C 74 % 5.88 C
862 17-05-2020 23:45:00 10.2 C 75 % 5.97 C
863 17-05-2020 23:50:00 10.1 C 75 % 5.88 C
864 17-05-2020 23:55:00 9.9 C 75 % 5.68 C
865 18-05-2020 00:00:00 9.8 C 76 % 5.78 C
866 18-05-2020 00:05:00 9.7 C 76 % 5.68 C
867 18-05-2020 00:10:00 9.6 C 77 % 5.77 C
868 18-05-2020 00:15:00 9.6 C 77 % 5.77 C
869 18-05-2020 00:20:00 9.5 C 78 % 5.86 C
870 18-05-2020 00:25:00 9.4 C 78 % 5.76 C
871 18-05-2020 00:30:00 9.3 C 78 % 5.67 C
872 18-05-2020 00:35:00 9.2 C 78 % 5.57 C
873 18-05-2020 00:40:00 9.1 C 78 % 5.47 C
874 18-05-2020 00:45:00 9.1 C 79 % 5.66 C
875 18-05-2020 00:50:00 9 C 79 % 5.56 C
Sensor: Nr:Datum:Temp:Feuchte:Taupunkt:
Aussen-T/F 876 18-05-2020 00:55:00 8.9 C 79 % 5.46 C
877 18-05-2020 01:00:00 8.8 C 80 % 5.55 C
878 18-05-2020 01:05:00 8.8 C 80 % 5.55 C
879 18-05-2020 01:10:00 8.7 C 80 % 5.45 C
880 18-05-2020 01:15:00 8.7 C 81 % 5.63 C
881 18-05-2020 01:20:00 8.6 C 81 % 5.53 C
882 18-05-2020 01:25:00 8.6 C 81 % 5.53 C
883 18-05-2020 01:30:00 8.6 C 81 % 5.53 C
884 18-05-2020 01:35:00 8.5 C 81 % 5.43 C
885 18-05-2020 01:40:00 8.4 C 81 % 5.33 C
886 18-05-2020 01:45:00 8.3 C 82 % 5.41 C
887 18-05-2020 01:50:00 8.3 C 82 % 5.41 C
888 18-05-2020 01:55:00 8.2 C 82 % 5.32 C
889 18-05-2020 02:00:00 8.2 C 82 % 5.32 C
890 18-05-2020 02:05:00 8.2 C 83 % 5.49 C
891 18-05-2020 02:10:00 8.1 C 82 % 5.22 C
892 18-05-2020 02:15:00 8 C 83 % 5.29 C
893 18-05-2020 02:20:00 7.9 C 83 % 5.2 C
894 18-05-2020 02:25:00 8 C 84 % 5.47 C
895 18-05-2020 02:30:00 8 C 84 % 5.47 C
896 18-05-2020 02:35:00 8 C 84 % 5.47 C
897 18-05-2020 02:40:00 7.9 C 83 % 5.2 C
898 18-05-2020 02:45:00 7.8 C 83 % 5.1 C
899 18-05-2020 02:50:00 7.7 C 84 % 5.17 C
900 18-05-2020 02:55:00 7.6 C 84 % 5.07 C
Sensor: Nr:Datum:Temp:Feuchte:Taupunkt:
Aussen-T/F 901 18-05-2020 03:00:00 7.5 C 84 % 4.98 C
902 18-05-2020 03:05:00 7.4 C 85 % 5.05 C
903 18-05-2020 03:10:00 7.3 C 85 % 4.95 C
904 18-05-2020 03:15:00 7.2 C 85 % 4.85 C
905 18-05-2020 03:20:00 7.2 C 85 % 4.85 C
906 18-05-2020 03:25:00 7.1 C 86 % 4.92 C
907 18-05-2020 03:30:00 7.1 C 87 % 5.09 C
908 18-05-2020 03:35:00 7.1 C 87 % 5.09 C
909 18-05-2020 03:40:00 7.1 C 87 % 5.09 C
910 18-05-2020 03:45:00 7 C 87 % 4.99 C
911 18-05-2020 03:50:00 7 C 87 % 4.99 C
912 18-05-2020 03:55:00 7 C 87 % 4.99 C
913 18-05-2020 04:00:00 6.9 C 87 % 4.89 C
914 18-05-2020 04:05:00 6.9 C 88 % 5.05 C
915 18-05-2020 04:10:00 6.9 C 88 % 5.05 C
916 18-05-2020 04:15:00 6.8 C 87 % 4.79 C
917 18-05-2020 04:20:00 6.7 C 87 % 4.69 C
918 18-05-2020 04:25:00 6.7 C 87 % 4.69 C
919 18-05-2020 04:30:00 6.6 C 88 % 4.76 C
920 18-05-2020 04:35:00 6.5 C 88 % 4.66 C
921 18-05-2020 04:40:00 6.4 C 88 % 4.56 C
922 18-05-2020 04:45:00 6.4 C 88 % 4.56 C
923 18-05-2020 04:50:00 6.3 C 88 % 4.46 C
924 18-05-2020 04:55:00 6.2 C 88 % 4.36 C
925 18-05-2020 05:00:00 6.2 C 89 % 4.53 C
Sensor: Nr:Datum:Temp:Feuchte:Taupunkt:
Aussen-T/F 926 18-05-2020 05:05:00 6.2 C 89 % 4.53 C
927 18-05-2020 05:10:00 6.2 C 89 % 4.53 C
928 18-05-2020 05:15:00 6.2 C 89 % 4.53 C
929 18-05-2020 05:20:00 6.1 C 89 % 4.43 C
930 18-05-2020 05:25:00 6.1 C 89 % 4.43 C
931 18-05-2020 05:30:00 6 C 89 % 4.33 C
932 18-05-2020 05:35:00 5.9 C 89 % 4.23 C
933 18-05-2020 05:40:00 5.9 C 89 % 4.23 C
934 18-05-2020 05:45:00 5.9 C 90 % 4.39 C
935 18-05-2020 05:50:00 5.9 C 90 % 4.39 C
936 18-05-2020 05:55:00 5.9 C 90 % 4.39 C
937 18-05-2020 06:00:00 5.9 C 90 % 4.39 C
938 18-05-2020 06:05:00 5.9 C 90 % 4.39 C
939 18-05-2020 06:10:00 5.9 C 90 % 4.39 C
940 18-05-2020 06:15:00 5.8 C 90 % 4.29 C
941 18-05-2020 06:20:00 5.8 C 91 % 4.45 C
942 18-05-2020 06:25:00 5.8 C 91 % 4.45 C
943 18-05-2020 06:30:00 5.9 C 91 % 4.55 C
944 18-05-2020 06:35:00 5.9 C 91 % 4.55 C
945 18-05-2020 06:40:00 5.9 C 91 % 4.55 C
946 18-05-2020 06:45:00 6 C 91 % 4.65 C
947 18-05-2020 06:50:00 6.1 C 92 % 4.9 C
948 18-05-2020 06:55:00 6.2 C 92 % 5 C
949 18-05-2020 07:00:00 6.2 C 92 % 5 C
950 18-05-2020 07:05:00 6.3 C 92 % 5.1 C
Sensor: Nr:Datum:Temp:Feuchte:Taupunkt:
Aussen-T/F 951 18-05-2020 07:10:00 6.4 C 92 % 5.2 C
952 18-05-2020 07:15:00 6.5 C 92 % 5.3 C
953 18-05-2020 07:20:00 6.6 C 92 % 5.4 C
954 18-05-2020 07:25:00 6.7 C 92 % 5.49 C
955 18-05-2020 07:30:00 6.7 C 92 % 5.49 C
956 18-05-2020 07:35:00 6.8 C 92 % 5.59 C
957 18-05-2020 07:40:00 6.9 C 92 % 5.69 C
958 18-05-2020 07:45:00 7 C 92 % 5.79 C
959 18-05-2020 07:50:00 7.1 C 92 % 5.89 C
960 18-05-2020 07:55:00 7.2 C 92 % 5.99 C
961 18-05-2020 08:00:00 7.3 C 92 % 6.09 C
962 18-05-2020 08:05:00 7.4 C 92 % 6.19 C
963 18-05-2020 08:10:00 7.6 C 92 % 6.39 C
964 18-05-2020 08:15:00 7.7 C 92 % 6.48 C
965 18-05-2020 08:20:00 7.8 C 92 % 6.58 C
966 18-05-2020 08:25:00 8 C 92 % 6.78 C
967 18-05-2020 08:30:00 8.2 C 92 % 6.98 C
968 18-05-2020 08:35:00 8.3 C 92 % 7.08 C
969 18-05-2020 08:40:00 8.5 C 92 % 7.28 C
970 18-05-2020 08:45:00 8.7 C 92 % 7.47 C
971 18-05-2020 08:50:00 8.9 C 92 % 7.67 C
972 18-05-2020 08:55:00 9.1 C 92 % 7.87 C
973 18-05-2020 09:00:00 9.3 C 91 % 7.91 C
974 18-05-2020 09:05:00 9.6 C 91 % 8.21 C
975 18-05-2020 09:10:00 9.7 C 90 % 8.14 C
Sensor: Nr:Datum:Temp:Feuchte:Taupunkt:
Aussen-T/F 976 18-05-2020 09:15:00 10 C 89 % 8.27 C
977 18-05-2020 09:20:00 10.3 C 88 % 8.4 C
978 18-05-2020 09:25:00 10.5 C 88 % 8.6 C
979 18-05-2020 09:30:00 10.7 C 87 % 8.63 C
980 18-05-2020 09:35:00 10.9 C 87 % 8.82 C
981 18-05-2020 09:40:00 11 C 86 % 8.75 C
982 18-05-2020 09:45:00 11.2 C 85 % 8.77 C
983 18-05-2020 09:50:00 11.4 C 85 % 8.97 C
984 18-05-2020 09:55:00 11.7 C 84 % 9.09 C
985 18-05-2020 10:00:00 11.9 C 85 % 9.46 C
986 18-05-2020 10:05:00 12.2 C 84 % 9.58 C
987 18-05-2020 10:10:00 12.3 C 84 % 9.68 C
988 18-05-2020 10:15:00 12.6 C 84 % 9.97 C
989 18-05-2020 10:20:00 12.9 C 83 % 10.09 C
990 18-05-2020 10:25:00 13.2 C 79 % 9.64 C
991 18-05-2020 10:30:00 13.8 C 76 % 9.65 C
992 18-05-2020 10:35:00 14.4 C 75 % 10.03 C
993 18-05-2020 10:40:00 15 C 70 % 9.58 C
994 18-05-2020 10:45:00 15.7 C 63 % 8.68 C
995 18-05-2020 10:50:00 16.4 C 58 % 8.12 C
996 18-05-2020 10:55:00 17.3 C 55 % 8.18 C
997 18-05-2020 11:00:00 17.9 C 53 % 8.19 C
998 18-05-2020 11:05:00 18.3 C 52 % 8.28 C
999 18-05-2020 11:10:00 18.5 C 50 % 7.89 C
1000 18-05-2020 11:15:00 18.7 C 53 % 8.93 C
Sensor: Nr:Datum:Temp:Feuchte:Taupunkt:
Aussen-T/F 1001 18-05-2020 11:20:00 18.7 C 52 % 8.65 C
1002 18-05-2020 11:25:00 18.8 C 52 % 8.75 C
1003 18-05-2020 11:30:00 19 C 50 % 8.35 C
1004 18-05-2020 11:35:00 19.2 C 50 % 8.53 C
1005 18-05-2020 11:40:00 19.3 C 51 % 8.92 C
1006 18-05-2020 11:45:00 19.4 C 49 % 8.42 C
1007 18-05-2020 11:50:00 19.6 C 49 % 8.6 C
1008 18-05-2020 11:55:00 19.7 C 47 % 8.08 C
1009 18-05-2020 12:00:00 19.7 C 49 % 8.7 C
1010 18-05-2020 12:05:00 19.8 C 48 % 8.48 C
1011 18-05-2020 12:10:00 19.9 C 48 % 8.57 C
1012 18-05-2020 12:15:00 20.1 C 47 % 8.45 C
1013 18-05-2020 12:20:00 20.2 C 47 % 8.54 C
1014 18-05-2020 12:25:00 20.3 C 47 % 8.63 C
1015 18-05-2020 12:30:00 20.3 C 47 % 8.63 C
1016 18-05-2020 12:35:00 20.2 C 47 % 8.54 C
1017 18-05-2020 12:40:00 20.3 C 48 % 8.94 C
1018 18-05-2020 12:45:00 20.4 C 46 % 8.4 C
1019 18-05-2020 12:50:00 20.7 C 45 % 8.35 C
1020 18-05-2020 12:55:00 20.8 C 45 % 8.44 C
1021 18-05-2020 13:00:00 20.9 C 44 % 8.2 C
1022 18-05-2020 13:05:00 20.9 C 45 % 8.53 C
1023 18-05-2020 13:10:00 20.9 C 44 % 8.2 C
1024 18-05-2020 13:15:00 21.1 C 43 % 8.04 C
1025 18-05-2020 13:20:00 21.2 C 44 % 8.47 C
Sensor: Nr:Datum:Temp:Feuchte:Taupunkt:
Aussen-T/F 1026 18-05-2020 13:25:00 21.3 C 43 % 8.22 C
1027 18-05-2020 13:30:00 21.4 C 43 % 8.31 C
1028 18-05-2020 13:35:00 21.6 C 43 % 8.49 C
1029 18-05-2020 13:40:00 21.7 C 43 % 8.58 C
1030 18-05-2020 13:45:00 22.1 C 43 % 8.95 C
1031 18-05-2020 13:50:00 22.2 C 42 % 8.69 C
1032 18-05-2020 13:55:00 22.1 C 40 % 7.88 C
1033 18-05-2020 14:00:00 22 C 43 % 8.85 C
1034 18-05-2020 14:05:00 22.2 C 40 % 7.97 C
1035 18-05-2020 14:10:00 22.4 C 41 % 8.51 C
1036 18-05-2020 14:15:00 22.6 C 42 % 9.05 C
1037 18-05-2020 14:20:00 22.8 C 39 % 8.13 C
1038 18-05-2020 14:25:00 22.9 C 40 % 8.59 C
1039 18-05-2020 14:30:00 22.8 C 40 % 8.5 C
1040 18-05-2020 14:35:00 22.8 C 38 % 7.75 C
1041 18-05-2020 14:40:00 23 C 40 % 8.68 C
1042 18-05-2020 14:45:00 23.2 C 38 % 8.11 C
1043 18-05-2020 14:50:00 23.4 C 40 % 9.04 C
1044 18-05-2020 14:55:00 23.6 C 38 % 8.46 C
1045 18-05-2020 15:00:00 23.8 C 37 % 8.25 C
1046 18-05-2020 15:05:00 23.8 C 37 % 8.25 C
1047 18-05-2020 15:10:00 23.7 C 38 % 8.55 C
1048 18-05-2020 15:15:00 23.9 C 37 % 8.33 C
1049 18-05-2020 15:20:00 24.2 C 38 % 8.99 C
1050 18-05-2020 15:25:00 24.3 C 39 % 9.47 C
Sensor: Nr:Datum:Temp:Feuchte:Taupunkt:
Aussen-T/F 1051 18-05-2020 15:30:00 24.4 C 37 % 8.78 C
1052 18-05-2020 15:35:00 24.6 C 37 % 8.95 C
1053 18-05-2020 15:40:00 24.9 C 37 % 9.22 C
1054 18-05-2020 15:45:00 25.1 C 37 % 9.39 C
1055 18-05-2020 15:50:00 25.2 C 36 % 9.08 C
1056 18-05-2020 15:55:00 25.3 C 36 % 9.16 C
1057 18-05-2020 16:00:00 25.1 C 36 % 8.99 C
1058 18-05-2020 16:05:00 25.1 C 35 % 8.57 C
1059 18-05-2020 16:10:00 24.9 C 36 % 8.81 C
1060 18-05-2020 16:15:00 25.1 C 36 % 8.99 C
1061 18-05-2020 16:20:00 25.5 C 35 % 8.92 C
1062 18-05-2020 16:25:00 25.7 C 35 % 9.1 C
1063 18-05-2020 16:30:00 25.8 C 35 % 9.19 C
1064 18-05-2020 16:35:00 25.8 C 36 % 9.61 C
1065 18-05-2020 16:40:00 26.2 C 35 % 9.54 C
1066 18-05-2020 16:45:00 26.1 C 35 % 9.45 C
1067 18-05-2020 16:50:00 25.9 C 34 % 8.85 C
1068 18-05-2020 16:55:00 25.9 C 35 % 9.27 C
1069 18-05-2020 17:00:00 25.9 C 34 % 8.85 C
1070 18-05-2020 17:05:00 25.7 C 34 % 8.67 C
1071 18-05-2020 17:10:00 25.8 C 36 % 9.61 C
1072 18-05-2020 17:15:00 26 C 35 % 9.36 C
1073 18-05-2020 17:20:00 26 C 35 % 9.36 C
1074 18-05-2020 17:25:00 25.8 C 36 % 9.61 C
1075 18-05-2020 17:30:00 25.9 C 36 % 9.69 C
Sensor: Nr:Datum:Temp:Feuchte:Taupunkt:
Aussen-T/F 1076 18-05-2020 17:35:00 25.8 C 36 % 9.61 C
1077 18-05-2020 17:40:00 25.9 C 37 % 10.1 C
1078 18-05-2020 17:45:00 25.9 C 36 % 9.69 C
1079 18-05-2020 17:50:00 25.8 C 37 % 10.01 C
1080 18-05-2020 17:55:00 25.9 C 37 % 10.1 C
1081 18-05-2020 18:00:00 26 C 37 % 10.19 C
1082 18-05-2020 18:05:00 26.2 C 37 % 10.37 C
1083 18-05-2020 18:10:00 26.1 C 37 % 10.28 C
1084 18-05-2020 18:15:00 26 C 37 % 10.19 C
1085 18-05-2020 18:20:00 26 C 37 % 10.19 C
1086 18-05-2020 18:25:00 25.9 C 38 % 10.5 C
1087 18-05-2020 18:30:00 25.9 C 38 % 10.5 C
1088 18-05-2020 18:35:00 26.1 C 38 % 10.68 C
1089 18-05-2020 18:40:00 26.2 C 38 % 10.77 C
1090 18-05-2020 18:45:00 26.1 C 39 % 11.07 C
1091 18-05-2020 18:50:00 26.1 C 39 % 11.07 C
1092 18-05-2020 18:55:00 26 C 39 % 10.98 C
1093 18-05-2020 19:00:00 25.9 C 39 % 10.89 C
1094 18-05-2020 19:05:00 25.8 C 39 % 10.8 C
1095 18-05-2020 19:10:00 25.6 C 39 % 10.62 C
1096 18-05-2020 19:15:00 25.5 C 41 % 11.29 C
1097 18-05-2020 19:20:00 25.1 C 41 % 10.93 C
1098 18-05-2020 19:25:00 24.8 C 42 % 11.02 C
1099 18-05-2020 19:30:00 24.6 C 43 % 11.2 C
1100 18-05-2020 19:35:00 24.5 C 43 % 11.11 C
Sensor: Nr:Datum:Temp:Feuchte:Taupunkt:
Aussen-T/F 1101 18-05-2020 19:40:00 24.3 C 44 % 11.27 C
1102 18-05-2020 19:45:00 24.2 C 44 % 11.18 C
1103 18-05-2020 19:50:00 24.1 C 45 % 11.43 C
1104 18-05-2020 19:55:00 23.8 C 45 % 11.16 C
1105 18-05-2020 20:00:00 23.7 C 46 % 11.4 C
1106 18-05-2020 20:05:00 23.6 C 46 % 11.31 C
1107 18-05-2020 20:10:00 23.4 C 47 % 11.45 C
1108 18-05-2020 20:15:00 23.3 C 47 % 11.36 C
1109 18-05-2020 20:20:00 23.2 C 48 % 11.59 C
1110 18-05-2020 20:25:00 23 C 48 % 11.41 C
1111 18-05-2020 20:30:00 22.8 C 48 % 11.22 C
1112 18-05-2020 20:35:00 22.7 C 49 % 11.44 C
1113 18-05-2020 20:40:00 22.6 C 49 % 11.35 C
1114 18-05-2020 20:45:00 22.4 C 50 % 11.47 C
1115 18-05-2020 20:50:00 22.2 C 52 % 11.88 C
1116 18-05-2020 20:55:00 21.8 C 52 % 11.51 C
1117 18-05-2020 21:00:00 21.3 C 55 % 11.9 C
1118 18-05-2020 21:05:00 20.9 C 55 % 11.53 C
1119 18-05-2020 21:10:00 20.6 C 56 % 11.52 C
1120 18-05-2020 21:15:00 20.2 C 57 % 11.42 C
1121 18-05-2020 21:20:00 19.8 C 58 % 11.3 C
1122 18-05-2020 21:25:00 19.5 C 58 % 11.02 C
1123 18-05-2020 21:30:00 19.2 C 60 % 11.25 C
1124 18-05-2020 21:35:00 18.8 C 61 % 11.13 C
1125 18-05-2020 21:40:00 18.6 C 61 % 10.94 C
Sensor: Nr:Datum:Temp:Feuchte:Taupunkt:
Aussen-T/F 1126 18-05-2020 21:45:00 18.3 C 62 % 10.9 C
1127 18-05-2020 21:50:00 18.1 C 63 % 10.95 C
1128 18-05-2020 21:55:00 17.9 C 64 % 11 C
1129 18-05-2020 22:00:00 17.7 C 64 % 10.81 C
1130 18-05-2020 22:05:00 17.6 C 65 % 10.95 C
1131 18-05-2020 22:10:00 17.4 C 65 % 10.76 C
1132 18-05-2020 22:15:00 17.3 C 66 % 10.89 C
1133 18-05-2020 22:20:00 17.2 C 66 % 10.8 C
1134 18-05-2020 22:25:00 17.1 C 67 % 10.93 C
1135 18-05-2020 22:30:00 17 C 67 % 10.83 C
1136 18-05-2020 22:35:00 16.9 C 68 % 10.96 C
1137 18-05-2020 22:40:00 16.8 C 69 % 11.09 C
1138 18-05-2020 22:45:00 16.6 C 69 % 10.89 C
1139 18-05-2020 22:50:00 16.4 C 70 % 10.92 C
1140 18-05-2020 22:55:00 16.3 C 70 % 10.82 C
1141 18-05-2020 23:00:00 16.2 C 71 % 10.94 C
1142 18-05-2020 23:05:00 16.2 C 71 % 10.94 C
1143 18-05-2020 23:10:00 16.1 C 71 % 10.84 C
1144 18-05-2020 23:15:00 16 C 71 % 10.75 C
1145 18-05-2020 23:20:00 15.9 C 72 % 10.86 C
1146 18-05-2020 23:25:00 15.8 C 72 % 10.77 C
1147 18-05-2020 23:30:00 15.7 C 73 % 10.88 C
1148 18-05-2020 23:35:00 15.4 C 73 % 10.59 C
1149 18-05-2020 23:40:00 15.3 C 73 % 10.49 C
1150 18-05-2020 23:45:00 15.3 C 74 % 10.7 C
Sensor: Nr:Datum:Temp:Feuchte:Taupunkt:
Aussen-T/F 1151 18-05-2020 23:50:00 15.2 C 74 % 10.6 C
1152 18-05-2020 23:55:00 15.2 C 74 % 10.6 C
1153 19-05-2020 00:00:00 15 C 75 % 10.61 C
1154 19-05-2020 00:05:00 14.8 C 75 % 10.42 C
1155 19-05-2020 00:10:00 14.6 C 76 % 10.42 C
1156 19-05-2020 00:15:00 14.4 C 76 % 10.23 C
1157 19-05-2020 00:20:00 14.1 C 76 % 9.94 C
1158 19-05-2020 00:25:00 13.9 C 77 % 9.94 C
1159 19-05-2020 00:30:00 13.7 C 78 % 9.94 C
1160 19-05-2020 00:35:00 13.4 C 79 % 9.84 C
1161 19-05-2020 00:40:00 13.3 C 79 % 9.74 C
1162 19-05-2020 00:45:00 13.2 C 80 % 9.83 C
1163 19-05-2020 00:50:00 13 C 80 % 9.63 C
1164 19-05-2020 00:55:00 12.9 C 80 % 9.54 C
1165 19-05-2020 01:00:00 12.7 C 81 % 9.53 C
1166 19-05-2020 01:05:00 12.6 C 82 % 9.61 C
1167 19-05-2020 01:10:00 12.4 C 82 % 9.42 C
1168 19-05-2020 01:15:00 12.3 C 83 % 9.5 C
1169 19-05-2020 01:20:00 12.2 C 83 % 9.4 C
1170 19-05-2020 01:25:00 12.1 C 84 % 9.48 C
1171 19-05-2020 01:30:00 12 C 84 % 9.38 C
1172 19-05-2020 01:35:00 11.9 C 85 % 9.46 C
1173 19-05-2020 01:40:00 11.9 C 85 % 9.46 C
1174 19-05-2020 01:45:00 11.8 C 85 % 9.36 C
1175 19-05-2020 01:50:00 11.6 C 85 % 9.17 C
Sensor: Nr:Datum:Temp:Feuchte:Taupunkt:
Aussen-T/F 1176 19-05-2020 01:55:00 11.5 C 85 % 9.07 C
1177 19-05-2020 02:00:00 11.5 C 85 % 9.07 C
1178 19-05-2020 02:05:00 11.4 C 85 % 8.97 C
1179 19-05-2020 02:10:00 11.3 C 84 % 8.7 C
1180 19-05-2020 02:15:00 11.3 C 85 % 8.87 C
1181 19-05-2020 02:20:00 11.2 C 85 % 8.77 C
1182 19-05-2020 02:25:00 11.2 C 85 % 8.77 C
1183 19-05-2020 02:30:00 11.1 C 85 % 8.68 C
1184 19-05-2020 02:35:00 10.9 C 85 % 8.48 C
1185 19-05-2020 02:40:00 10.8 C 85 % 8.38 C
1186 19-05-2020 02:45:00 10.7 C 85 % 8.28 C
1187 19-05-2020 02:50:00 10.6 C 85 % 8.19 C
1188 19-05-2020 02:55:00 10.4 C 86 % 8.16 C
1189 19-05-2020 03:00:00 10.4 C 86 % 8.16 C
1190 19-05-2020 03:05:00 10.3 C 87 % 8.23 C
1191 19-05-2020 03:10:00 10.2 C 87 % 8.14 C
1192 19-05-2020 03:15:00 10.1 C 87 % 8.04 C
1193 19-05-2020 03:20:00 9.9 C 87 % 7.84 C
1194 19-05-2020 03:25:00 9.8 C 88 % 7.91 C
1195 19-05-2020 03:30:00 9.7 C 88 % 7.81 C
1196 19-05-2020 03:35:00 9.7 C 88 % 7.81 C
1197 19-05-2020 03:40:00 9.6 C 89 % 7.88 C
1198 19-05-2020 03:45:00 9.5 C 89 % 7.78 C
1199 19-05-2020 03:50:00 9.4 C 89 % 7.68 C
1200 19-05-2020 03:55:00 9.3 C 89 % 7.58 C
Sensor: Nr:Datum:Temp:Feuchte:Taupunkt:
Aussen-T/F 1201 19-05-2020 04:00:00 9.2 C 89 % 7.48 C
1202 19-05-2020 04:05:00 9.1 C 90 % 7.55 C
1203 19-05-2020 04:10:00 9 C 90 % 7.45 C
1204 19-05-2020 04:15:00 8.9 C 90 % 7.35 C
1205 19-05-2020 04:20:00 8.9 C 90 % 7.35 C
1206 19-05-2020 04:25:00 8.9 C 91 % 7.51 C
1207 19-05-2020 04:30:00 8.8 C 91 % 7.41 C
1208 19-05-2020 04:35:00 8.9 C 91 % 7.51 C
1209 19-05-2020 04:40:00 8.8 C 91 % 7.41 C
1210 19-05-2020 04:45:00 8.8 C 91 % 7.41 C
1211 19-05-2020 04:50:00 8.7 C 91 % 7.32 C
1212 19-05-2020 04:55:00 8.7 C 90 % 7.15 C
1213 19-05-2020 05:00:00 8.7 C 90 % 7.15 C
1214 19-05-2020 05:05:00 8.7 C 91 % 7.32 C
1215 19-05-2020 05:10:00 8.6 C 90 % 7.06 C
1216 19-05-2020 05:15:00 8.4 C 90 % 6.86 C
1217 19-05-2020 05:20:00 8.3 C 90 % 6.76 C
1218 19-05-2020 05:25:00 8.3 C 90 % 6.76 C
1219 19-05-2020 05:30:00 8.2 C 91 % 6.82 C
1220 19-05-2020 05:35:00 8.2 C 91 % 6.82 C
1221 19-05-2020 05:40:00 8.1 C 91 % 6.72 C
1222 19-05-2020 05:45:00 8.1 C 91 % 6.72 C
1223 19-05-2020 05:50:00 8.1 C 91 % 6.72 C
1224 19-05-2020 05:55:00 8.1 C 91 % 6.72 C
1225 19-05-2020 06:00:00 8.1 C 91 % 6.72 C
Sensor: Nr:Datum:Temp:Feuchte:Taupunkt:
Aussen-T/F 1226 19-05-2020 06:05:00 8 C 91 % 6.62 C
1227 19-05-2020 06:10:00 8.1 C 92 % 6.88 C
1228 19-05-2020 06:15:00 8.1 C 92 % 6.88 C
1229 19-05-2020 06:20:00 8.2 C 92 % 6.98 C
1230 19-05-2020 06:25:00 8.2 C 92 % 6.98 C
1231 19-05-2020 06:30:00 8.2 C 91 % 6.82 C
1232 19-05-2020 06:35:00 8.2 C 91 % 6.82 C
1233 19-05-2020 06:40:00 8.1 C 91 % 6.72 C
1234 19-05-2020 06:45:00 8.1 C 91 % 6.72 C
1235 19-05-2020 06:50:00 8.1 C 91 % 6.72 C
1236 19-05-2020 06:55:00 8.1 C 92 % 6.88 C
1237 19-05-2020 07:00:00 8.1 C 92 % 6.88 C
1238 19-05-2020 07:05:00 8.2 C 92 % 6.98 C
1239 19-05-2020 07:10:00 8.2 C 92 % 6.98 C
1240 19-05-2020 07:15:00 8.3 C 92 % 7.08 C
1241 19-05-2020 07:20:00 8.3 C 92 % 7.08 C
1242 19-05-2020 07:25:00 8.3 C 92 % 7.08 C
1243 19-05-2020 07:30:00 8.3 C 92 % 7.08 C
1244 19-05-2020 07:35:00 8.4 C 92 % 7.18 C
1245 19-05-2020 07:40:00 8.4 C 92 % 7.18 C
1246 19-05-2020 07:45:00 8.5 C 92 % 7.28 C
1247 19-05-2020 07:50:00 8.6 C 92 % 7.38 C
1248 19-05-2020 07:55:00 8.6 C 92 % 7.38 C
1249 19-05-2020 08:00:00 8.7 C 92 % 7.47 C
1250 19-05-2020 08:05:00 8.8 C 92 % 7.57 C
Sensor: Nr:Datum:Temp:Feuchte:Taupunkt:
Aussen-T/F 1251 19-05-2020 08:10:00 8.8 C 92 % 7.57 C
1252 19-05-2020 08:15:00 8.9 C 93 % 7.83 C
1253 19-05-2020 08:20:00 9.1 C 93 % 8.03 C
1254 19-05-2020 08:25:00 9.2 C 93 % 8.13 C
1255 19-05-2020 08:30:00 9.3 C 93 % 8.23 C
1256 19-05-2020 08:35:00 9.4 C 92 % 8.17 C
1257 19-05-2020 08:40:00 9.6 C 92 % 8.37 C
1258 19-05-2020 08:45:00 9.7 C 92 % 8.46 C
1259 19-05-2020 08:50:00 9.9 C 92 % 8.66 C
1260 19-05-2020 08:55:00 10.1 C 92 % 8.86 C
1261 19-05-2020 09:00:00 10.2 C 92 % 8.96 C
1262 19-05-2020 09:05:00 10.4 C 92 % 9.16 C
1263 19-05-2020 09:10:00 10.7 C 92 % 9.45 C
1264 19-05-2020 09:15:00 10.8 C 91 % 9.39 C
1265 19-05-2020 09:20:00 11 C 91 % 9.59 C
1266 19-05-2020 09:25:00 11.3 C 90 % 9.72 C
1267 19-05-2020 09:30:00 11.6 C 89 % 9.85 C
1268 19-05-2020 09:35:00 11.9 C 87 % 9.81 C
1269 19-05-2020 09:40:00 12.2 C 85 % 9.76 C
1270 19-05-2020 09:45:00 12.6 C 83 % 9.79 C
1271 19-05-2020 09:50:00 12.9 C 82 % 9.9 C
1272 19-05-2020 09:55:00 13.1 C 82 % 10.1 C
1273 19-05-2020 10:00:00 13.2 C 80 % 9.83 C
1274 19-05-2020 10:05:00 13.4 C 79 % 9.84 C
1275 19-05-2020 10:10:00 13.6 C 75 % 9.26 C
Sensor: Nr:Datum:Temp:Feuchte:Taupunkt:
Aussen-T/F 1276 19-05-2020 10:15:00 13.9 C 75 % 9.55 C
1277 19-05-2020 10:20:00 14.3 C 73 % 9.53 C
1278 19-05-2020 10:25:00 14.7 C 71 % 9.5 C
1279 19-05-2020 10:30:00 15.1 C 67 % 9.02 C
1280 19-05-2020 10:35:00 15.5 C 67 % 9.41 C
1281 19-05-2020 10:40:00 15.9 C 62 % 8.64 C
1282 19-05-2020 10:45:00 16.4 C 59 % 8.38 C
1283 19-05-2020 10:50:00 16.8 C 56 % 7.98 C
1284 19-05-2020 10:55:00 17.5 C 50 % 6.97 C
1285 19-05-2020 11:00:00 18.1 C 51 % 7.81 C
1286 19-05-2020 11:05:00 18.7 C 46 % 6.86 C
1287 19-05-2020 11:10:00 19.1 C 46 % 7.22 C
1288 19-05-2020 11:15:00 19.4 C 47 % 7.81 C
1289 19-05-2020 11:20:00 19.7 C 44 % 7.12 C
1290 19-05-2020 11:25:00 19.8 C 47 % 8.17 C
1291 19-05-2020 11:30:00 19.8 C 46 % 7.86 C
1292 19-05-2020 11:35:00 19.8 C 44 % 7.21 C
1293 19-05-2020 11:40:00 19.8 C 45 % 7.53 C
1294 19-05-2020 11:45:00 19.9 C 44 % 7.3 C
1295 19-05-2020 11:50:00 20 C 43 % 7.05 C
1296 19-05-2020 11:55:00 20.1 C 43 % 7.14 C
1297 19-05-2020 12:00:00 20.1 C 44 % 7.48 C
1298 19-05-2020 12:05:00 20.1 C 40 % 6.09 C
1299 19-05-2020 12:10:00 20.2 C 40 % 6.18 C
1300 19-05-2020 12:15:00 20.2 C 41 % 6.54 C
Sensor: Nr:Datum:Temp:Feuchte:Taupunkt:
Aussen-T/F 1301 19-05-2020 12:20:00 20.2 C 41 % 6.54 C
1302 19-05-2020 12:25:00 20.3 C 40 % 6.27 C
1303 19-05-2020 12:30:00 20.4 C 40 % 6.36 C
1304 19-05-2020 12:35:00 20.4 C 42 % 7.07 C
1305 19-05-2020 12:40:00 20.4 C 41 % 6.72 C
1306 19-05-2020 12:45:00 20.4 C 38 % 5.62 C
1307 19-05-2020 12:50:00 20.6 C 37 % 5.41 C
1308 19-05-2020 12:55:00 20.8 C 41 % 7.08 C
1309 19-05-2020 13:00:00 20.9 C 40 % 6.81 C
1310 19-05-2020 13:05:00 21 C 37 % 5.77 C
1311 19-05-2020 13:10:00 21.2 C 39 % 6.71 C
1312 19-05-2020 13:15:00 21.4 C 37 % 6.12 C
1313 19-05-2020 13:20:00 21.7 C 38 % 6.77 C
1314 19-05-2020 13:25:00 21.8 C 37 % 6.48 C
1315 19-05-2020 13:30:00 22 C 37 % 6.65 C
1316 19-05-2020 13:35:00 22 C 38 % 7.04 C
1317 19-05-2020 13:40:00 22.1 C 38 % 7.13 C
1318 19-05-2020 13:45:00 22.2 C 36 % 6.43 C
1319 19-05-2020 13:50:00 22.3 C 36 % 6.52 C
1320 19-05-2020 13:55:00 22.4 C 36 % 6.61 C
1321 19-05-2020 14:00:00 22.4 C 38 % 7.4 C
1322 19-05-2020 14:05:00 22.6 C 37 % 7.18 C
1323 19-05-2020 14:10:00 23 C 36 % 7.14 C
1324 19-05-2020 14:15:00 23.1 C 36 % 7.23 C
1325 19-05-2020 14:20:00 23.1 C 36 % 7.23 C
Sensor: Nr:Datum:Temp:Feuchte:Taupunkt:
Aussen-T/F 1326 19-05-2020 14:25:00 23.3 C 36 % 7.4 C
1327 19-05-2020 14:30:00 23.3 C 36 % 7.4 C
1328 19-05-2020 14:35:00 23.4 C 37 % 7.89 C
1329 19-05-2020 14:40:00 23.5 C 36 % 7.58 C
1330 19-05-2020 14:45:00 23.6 C 38 % 8.46 C
1331 19-05-2020 14:50:00 23.7 C 38 % 8.55 C
1332 19-05-2020 14:55:00 23.7 C 39 % 8.93 C
1333 19-05-2020 15:00:00 23.9 C 40 % 9.49 C
1334 19-05-2020 15:05:00 24.2 C 39 % 9.38 C
1335 19-05-2020 15:10:00 24.2 C 39 % 9.38 C
1336 19-05-2020 15:15:00 24.3 C 39 % 9.47 C
1337 19-05-2020 15:20:00 24.3 C 38 % 9.08 C
1338 19-05-2020 15:25:00 24.3 C 39 % 9.47 C
1339 19-05-2020 15:30:00 24.3 C 37 % 8.69 C
1340 19-05-2020 15:35:00 24.1 C 39 % 9.29 C
1341 19-05-2020 15:40:00 24.1 C 39 % 9.29 C
1342 19-05-2020 15:45:00 24 C 40 % 9.58 C
1343 19-05-2020 15:50:00 23.9 C 40 % 9.49 C
1344 19-05-2020 15:55:00 23.8 C 41 % 9.76 C
1345 19-05-2020 16:00:00 24.1 C 41 % 10.03 C
1346 19-05-2020 16:05:00 24.4 C 41 % 10.3 C
1347 19-05-2020 16:10:00 24.5 C 40 % 10.02 C
1348 19-05-2020 16:15:00 24.5 C 40 % 10.02 C
1349 19-05-2020 16:20:00 24.6 C 41 % 10.48 C
1350 19-05-2020 16:25:00 25.1 C 40 % 10.56 C
Sensor: Nr:Datum:Temp:Feuchte:Taupunkt:
Aussen-T/F 1351 19-05-2020 16:30:00 25 C 39 % 10.09 C
1352 19-05-2020 16:35:00 24.7 C 40 % 10.2 C
1353 19-05-2020 16:40:00 24.8 C 40 % 10.29 C
1354 19-05-2020 16:45:00 24.7 C 40 % 10.2 C
1355 19-05-2020 16:50:00 24.6 C 40 % 10.11 C
1356 19-05-2020 16:55:00 24.4 C 41 % 10.3 C
1357 19-05-2020 17:00:00 24.6 C 42 % 10.84 C
1358 19-05-2020 17:05:00 24.8 C 42 % 11.02 C
1359 19-05-2020 17:10:00 25.1 C 40 % 10.56 C
1360 19-05-2020 17:15:00 25 C 41 % 10.84 C
1361 19-05-2020 17:20:00 25.1 C 42 % 11.29 C
1362 19-05-2020 17:25:00 25.5 C 41 % 11.29 C
1363 19-05-2020 17:30:00 25.8 C 41 % 11.56 C
1364 19-05-2020 17:35:00 25.7 C 40 % 11.09 C
1365 19-05-2020 17:40:00 25.5 C 41 % 11.29 C
1366 19-05-2020 17:45:00 25.5 C 41 % 11.29 C
1367 19-05-2020 17:50:00 25.3 C 41 % 11.11 C
1368 19-05-2020 17:55:00 25.3 C 42 % 11.47 C
1369 19-05-2020 18:00:00 25.4 C 41 % 11.2 C
1370 19-05-2020 18:05:00 25.5 C 41 % 11.29 C
1371 19-05-2020 18:10:00 25.5 C 41 % 11.29 C
1372 19-05-2020 18:15:00 25.5 C 41 % 11.29 C
1373 19-05-2020 18:20:00 25.4 C 41 % 11.2 C
1374 19-05-2020 18:25:00 25.5 C 42 % 11.65 C
1375 19-05-2020 18:30:00 25.4 C 42 % 11.56 C
Sensor: Nr:Datum:Temp:Feuchte:Taupunkt:
Aussen-T/F 1376 19-05-2020 18:35:00 25.4 C 42 % 11.56 C
1377 19-05-2020 18:40:00 25.4 C 42 % 11.56 C
1378 19-05-2020 18:45:00 25.4 C 42 % 11.56 C
1379 19-05-2020 18:50:00 25.5 C 42 % 11.65 C
1380 19-05-2020 18:55:00 25.3 C 42 % 11.47 C
1381 19-05-2020 19:00:00 25.2 C 43 % 11.74 C
1382 19-05-2020 19:05:00 25.2 C 43 % 11.74 C
1383 19-05-2020 19:10:00 25 C 43 % 11.56 C
1384 19-05-2020 19:15:00 24.8 C 45 % 12.06 C
1385 19-05-2020 19:20:00 24.6 C 44 % 11.54 C
1386 19-05-2020 19:25:00 24.4 C 46 % 12.04 C
1387 19-05-2020 19:30:00 24.3 C 46 % 11.94 C
1388 19-05-2020 19:35:00 24.1 C 47 % 12.09 C
1389 19-05-2020 19:40:00 23.9 C 47 % 11.91 C
1390 19-05-2020 19:45:00 23.7 C 47 % 11.73 C
1391 19-05-2020 19:50:00 23.6 C 48 % 11.95 C
1392 19-05-2020 19:55:00 23.4 C 48 % 11.77 C
1393 19-05-2020 20:00:00 23.3 C 48 % 11.68 C
1394 19-05-2020 20:05:00 23.1 C 49 % 11.81 C
1395 19-05-2020 20:10:00 22.8 C 50 % 11.84 C
1396 19-05-2020 20:15:00 22.5 C 50 % 11.56 C
1397 19-05-2020 20:20:00 22.4 C 53 % 12.36 C
1398 19-05-2020 20:25:00 21.9 C 58 % 13.27 C
1399 19-05-2020 20:30:00 21.3 C 58 % 12.71 C
1400 19-05-2020 20:35:00 20.9 C 57 % 12.07 C
Sensor: Nr:Datum:Temp:Feuchte:Taupunkt:
Aussen-T/F 1401 19-05-2020 20:40:00 20.8 C 57 % 11.97 C
1402 19-05-2020 20:45:00 20.8 C 58 % 12.24 C
1403 19-05-2020 20:50:00 20.8 C 57 % 11.97 C
1404 19-05-2020 20:55:00 20.9 C 59 % 12.59 C
1405 19-05-2020 21:00:00 20.8 C 60 % 12.76 C
1406 19-05-2020 21:05:00 20.7 C 61 % 12.91 C
1407 19-05-2020 21:10:00 20.3 C 61 % 12.54 C
1408 19-05-2020 21:15:00 20 C 61 % 12.26 C
1409 19-05-2020 21:20:00 19.7 C 62 % 12.22 C
1410 19-05-2020 21:25:00 19.3 C 63 % 12.09 C
1411 19-05-2020 21:30:00 18.9 C 64 % 11.95 C
1412 19-05-2020 21:35:00 18.7 C 65 % 11.99 C
1413 19-05-2020 21:40:00 18.4 C 66 % 11.94 C
1414 19-05-2020 21:45:00 18.2 C 67 % 11.98 C
1415 19-05-2020 21:50:00 17.9 C 67 % 11.69 C
1416 19-05-2020 21:55:00 17.8 C 68 % 11.82 C
1417 19-05-2020 22:00:00 17.6 C 68 % 11.63 C
1418 19-05-2020 22:05:00 17.4 C 69 % 11.66 C
1419 19-05-2020 22:10:00 17.3 C 70 % 11.78 C
1420 19-05-2020 22:15:00 17.2 C 70 % 11.68 C
1421 19-05-2020 22:20:00 17.1 C 70 % 11.59 C
1422 19-05-2020 22:25:00 17.1 C 71 % 11.8 C
1423 19-05-2020 22:30:00 16.9 C 70 % 11.4 C
1424 19-05-2020 22:35:00 16.9 C 71 % 11.61 C
1425 19-05-2020 22:40:00 16.8 C 72 % 11.73 C
Sensor: Nr:Datum:Temp:Feuchte:Taupunkt:
Aussen-T/F 1426 19-05-2020 22:45:00 16.7 C 72 % 11.63 C
1427 19-05-2020 22:50:00 16.6 C 73 % 11.74 C
1428 19-05-2020 22:55:00 16.4 C 73 % 11.55 C
1429 19-05-2020 23:00:00 16.3 C 74 % 11.66 C
1430 19-05-2020 23:05:00 16.1 C 75 % 11.67 C
1431 19-05-2020 23:10:00 15.9 C 75 % 11.48 C
1432 19-05-2020 23:15:00 15.8 C 76 % 11.58 C
1433 19-05-2020 23:20:00 15.7 C 76 % 11.48 C
1434 19-05-2020 23:25:00 15.6 C 77 % 11.59 C
1435 19-05-2020 23:30:00 15.5 C 77 % 11.49 C
1436 19-05-2020 23:35:00 15.4 C 77 % 11.39 C
1437 19-05-2020 23:40:00 15.3 C 78 % 11.49 C
1438 19-05-2020 23:45:00 15.2 C 78 % 11.39 C
1439 19-05-2020 23:50:00 15.1 C 79 % 11.49 C
1440 19-05-2020 23:55:00 15.1 C 80 % 11.68 C
1441 20-05-2020 00:00:00 15.1 C 81 % 11.87 C
1442 20-05-2020 00:05:00 15.1 C 81 % 11.87 C
1443 20-05-2020 00:10:00 15.1 C 81 % 11.87 C
1444 20-05-2020 00:15:00 15.1 C 81 % 11.87 C
1445 20-05-2020 00:20:00 15.1 C 81 % 11.87 C
1446 20-05-2020 00:25:00 15.1 C 81 % 11.87 C
1447 20-05-2020 00:30:00 15.1 C 81 % 11.87 C
1448 20-05-2020 00:35:00 14.9 C 81 % 11.67 C
1449 20-05-2020 00:40:00 14.8 C 80 % 11.39 C
1450 20-05-2020 00:45:00 14.7 C 81 % 11.48 C
Sensor: Nr:Datum:Temp:Feuchte:Taupunkt:
Aussen-T/F 1451 20-05-2020 00:50:00 14.5 C 81 % 11.28 C
1452 20-05-2020 00:55:00 14.3 C 81 % 11.09 C
1453 20-05-2020 01:00:00 14.2 C 82 % 11.17 C
1454 20-05-2020 01:05:00 14.1 C 83 % 11.26 C
1455 20-05-2020 01:10:00 13.9 C 83 % 11.06 C
1456 20-05-2020 01:15:00 13.9 C 83 % 11.06 C
1457 20-05-2020 01:20:00 13.8 C 83 % 10.97 C
1458 20-05-2020 01:25:00 13.7 C 84 % 11.05 C
1459 20-05-2020 01:30:00 13.6 C 84 % 10.95 C
1460 20-05-2020 01:35:00 13.5 C 84 % 10.85 C
1461 20-05-2020 01:40:00 13.4 C 85 % 10.93 C
1462 20-05-2020 01:45:00 13.3 C 85 % 10.83 C
1463 20-05-2020 01:50:00 13.3 C 85 % 10.83 C
1464 20-05-2020 01:55:00 13.2 C 85 % 10.74 C
1465 20-05-2020 02:00:00 13.1 C 85 % 10.64 C
1466 20-05-2020 02:05:00 13 C 86 % 10.72 C
1467 20-05-2020 02:10:00 12.9 C 86 % 10.62 C
1468 20-05-2020 02:15:00 12.9 C 87 % 10.79 C
1469 20-05-2020 02:20:00 12.8 C 87 % 10.69 C
1470 20-05-2020 02:25:00 12.8 C 87 % 10.69 C
1471 20-05-2020 02:30:00 12.8 C 87 % 10.69 C
1472 20-05-2020 02:35:00 12.8 C 87 % 10.69 C
1473 20-05-2020 02:40:00 12.8 C 87 % 10.69 C
1474 20-05-2020 02:45:00 12.7 C 87 % 10.59 C
1475 20-05-2020 02:50:00 12.7 C 87 % 10.59 C
Sensor: Nr:Datum:Temp:Feuchte:Taupunkt:
Aussen-T/F 1476 20-05-2020 02:55:00 12.6 C 88 % 10.67 C
1477 20-05-2020 03:00:00 12.6 C 88 % 10.67 C
1478 20-05-2020 03:05:00 12.5 C 88 % 10.57 C
1479 20-05-2020 03:10:00 12.4 C 88 % 10.47 C
1480 20-05-2020 03:15:00 12.3 C 88 % 10.37 C
1481 20-05-2020 03:20:00 12.3 C 88 % 10.37 C
1482 20-05-2020 03:25:00 12.2 C 89 % 10.44 C
1483 20-05-2020 03:30:00 12.2 C 89 % 10.44 C
1484 20-05-2020 03:35:00 12.2 C 89 % 10.44 C
1485 20-05-2020 03:40:00 12.1 C 89 % 10.34 C
1486 20-05-2020 03:45:00 12.1 C 89 % 10.34 C
1487 20-05-2020 03:50:00 12.1 C 90 % 10.51 C
1488 20-05-2020 03:55:00 12.1 C 90 % 10.51 C
1489 20-05-2020 04:00:00 12.1 C 90 % 10.51 C
1490 20-05-2020 04:05:00 12.1 C 90 % 10.51 C
1491 20-05-2020 04:10:00 12.1 C 90 % 10.51 C
1492 20-05-2020 04:15:00 12 C 90 % 10.41 C
1493 20-05-2020 04:20:00 11.9 C 90 % 10.31 C
1494 20-05-2020 04:25:00 11.8 C 90 % 10.21 C
1495 20-05-2020 04:30:00 11.8 C 91 % 10.38 C
1496 20-05-2020 04:35:00 11.9 C 91 % 10.48 C
1497 20-05-2020 04:40:00 11.9 C 91 % 10.48 C
1498 20-05-2020 04:45:00 11.9 C 91 % 10.48 C
1499 20-05-2020 04:50:00 11.8 C 90 % 10.21 C
1500 20-05-2020 04:55:00 11.7 C 90 % 10.12 C
Sensor: Nr:Datum:Temp:Feuchte:Taupunkt:
Aussen-T/F 1501 20-05-2020 05:00:00 11.6 C 90 % 10.02 C
1502 20-05-2020 05:05:00 11.4 C 90 % 9.82 C
1503 20-05-2020 05:10:00 11.3 C 91 % 9.89 C
1504 20-05-2020 05:15:00 11.3 C 91 % 9.89 C
1505 20-05-2020 05:20:00 11.3 C 91 % 9.89 C
1506 20-05-2020 05:25:00 11.2 C 91 % 9.79 C
1507 20-05-2020 05:30:00 11.2 C 91 % 9.79 C
1508 20-05-2020 05:35:00 11.2 C 92 % 9.95 C
1509 20-05-2020 05:40:00 11.2 C 92 % 9.95 C
1510 20-05-2020 05:45:00 11.3 C 92 % 10.05 C
1511 20-05-2020 05:50:00 11.3 C 92 % 10.05 C
1512 20-05-2020 05:55:00 11.3 C 92 % 10.05 C
1513 20-05-2020 06:00:00 11.3 C 92 % 10.05 C
1514 20-05-2020 06:05:00 11.4 C 92 % 10.15 C
1515 20-05-2020 06:10:00 11.4 C 92 % 10.15 C
1516 20-05-2020 06:15:00 11.4 C 92 % 10.15 C
1517 20-05-2020 06:20:00 11.4 C 92 % 10.15 C
1518 20-05-2020 06:25:00 11.4 C 92 % 10.15 C
1519 20-05-2020 06:30:00 11.4 C 92 % 10.15 C
1520 20-05-2020 06:35:00 11.4 C 92 % 10.15 C
1521 20-05-2020 06:40:00 11.5 C 93 % 10.41 C
1522 20-05-2020 06:45:00 11.6 C 93 % 10.51 C
1523 20-05-2020 06:50:00 11.6 C 92 % 10.35 C
1524 20-05-2020 06:55:00 11.6 C 92 % 10.35 C
1525 20-05-2020 07:00:00 11.6 C 92 % 10.35 C
Sensor: Nr:Datum:Temp:Feuchte:Taupunkt:
Aussen-T/F 1526 20-05-2020 07:05:00 11.6 C 92 % 10.35 C
1527 20-05-2020 07:10:00 11.6 C 92 % 10.35 C
1528 20-05-2020 07:15:00 11.7 C 93 % 10.61 C
1529 20-05-2020 07:20:00 11.7 C 93 % 10.61 C
1530 20-05-2020 07:25:00 11.8 C 93 % 10.71 C
1531 20-05-2020 07:30:00 11.8 C 93 % 10.71 C
1532 20-05-2020 07:35:00 12 C 93 % 10.9 C
1533 20-05-2020 07:40:00 12.2 C 93 % 11.1 C
1534 20-05-2020 07:45:00 12.3 C 94 % 11.36 C
1535 20-05-2020 07:50:00 12.6 C 94 % 11.66 C
1536 20-05-2020 07:55:00 12.8 C 93 % 11.7 C
1537 20-05-2020 08:00:00 13.1 C 93 % 11.99 C
1538 20-05-2020 08:05:00 13.2 C 93 % 12.09 C
1539 20-05-2020 08:10:00 13.4 C 93 % 12.29 C
1540 20-05-2020 08:15:00 13.8 C 91 % 12.36 C
1541 20-05-2020 08:20:00 14.3 C 89 % 12.51 C
1542 20-05-2020 08:25:00 14.7 C 87 % 12.56 C
1543 20-05-2020 08:30:00 15.2 C 85 % 12.7 C
1544 20-05-2020 08:35:00 15.6 C 84 % 12.91 C
1545 20-05-2020 08:40:00 15.8 C 83 % 12.92 C
1546 20-05-2020 08:45:00 15.9 C 82 % 12.83 C
1547 20-05-2020 08:50:00 16.1 C 81 % 12.84 C
1548 20-05-2020 08:55:00 16.3 C 81 % 13.04 C
1549 20-05-2020 09:00:00 16.4 C 80 % 12.94 C
1550 20-05-2020 09:05:00 16.5 C 80 % 13.04 C
Sensor: Nr:Datum:Temp:Feuchte:Taupunkt:
Aussen-T/F 1551 20-05-2020 09:10:00 16.6 C 79 % 12.95 C
1552 20-05-2020 09:15:00 16.7 C 79 % 13.04 C
1553 20-05-2020 09:20:00 16.8 C 79 % 13.14 C
1554 20-05-2020 09:25:00 16.9 C 78 % 13.04 C
1555 20-05-2020 09:30:00 17.1 C 78 % 13.24 C
1556 20-05-2020 09:35:00 17.1 C 77 % 13.04 C
1557 20-05-2020 09:40:00 17.2 C 77 % 13.14 C
1558 20-05-2020 09:45:00 17.3 C 77 % 13.23 C
1559 20-05-2020 09:50:00 17.4 C 76 % 13.13 C
1560 20-05-2020 09:55:00 17.6 C 75 % 13.12 C
1561 20-05-2020 10:00:00 17.7 C 75 % 13.22 C
1562 20-05-2020 10:05:00 17.8 C 74 % 13.11 C
1563 20-05-2020 10:10:00 18 C 74 % 13.3 C
1564 20-05-2020 10:15:00 18.3 C 74 % 13.59 C
1565 20-05-2020 10:20:00 18.5 C 72 % 13.36 C
1566 20-05-2020 10:25:00 18.6 C 71 % 13.24 C
1567 20-05-2020 10:30:00 18.8 C 71 % 13.43 C
1568 20-05-2020 10:35:00 18.9 C 71 % 13.53 C
1569 20-05-2020 10:40:00 19 C 71 % 13.63 C
1570 20-05-2020 10:45:00 19.2 C 71 % 13.82 C
1571 20-05-2020 10:50:00 19.2 C 70 % 13.6 C
1572 20-05-2020 10:55:00 19.3 C 70 % 13.69 C
1573 20-05-2020 11:00:00 19.4 C 69 % 13.57 C
1574 20-05-2020 11:05:00 19.4 C 68 % 13.34 C
1575 20-05-2020 11:10:00 19.6 C 68 % 13.54 C
Sensor: Nr:Datum:Temp:Feuchte:Taupunkt:
Aussen-T/F 1576 20-05-2020 11:15:00 19.7 C 68 % 13.63 C
1577 20-05-2020 11:20:00 19.7 C 68 % 13.63 C
1578 20-05-2020 11:25:00 19.7 C 67 % 13.4 C
1579 20-05-2020 11:30:00 19.7 C 68 % 13.63 C
1580 20-05-2020 11:35:00 19.6 C 68 % 13.54 C
1581 20-05-2020 11:40:00 19.6 C 68 % 13.54 C
1582 20-05-2020 11:45:00 19.6 C 68 % 13.54 C
1583 20-05-2020 11:50:00 19.6 C 69 % 13.76 C
1584 20-05-2020 11:55:00 19.7 C 68 % 13.63 C
1585 20-05-2020 12:00:00 19.8 C 67 % 13.5 C
1586 20-05-2020 12:05:00 19.9 C 67 % 13.59 C
1587 20-05-2020 12:10:00 20.1 C 66 % 13.55 C
1588 20-05-2020 12:15:00 20.1 C 67 % 13.78 C
1589 20-05-2020 12:20:00 20.2 C 67 % 13.88 C
1590 20-05-2020 12:25:00 20.3 C 65 % 13.51 C
1591 20-05-2020 12:30:00 20.3 C 66 % 13.74 C
1592 20-05-2020 12:35:00 20.2 C 66 % 13.65 C
1593 20-05-2020 12:40:00 20.3 C 65 % 13.51 C
1594 20-05-2020 12:45:00 20.5 C 65 % 13.7 C
1595 20-05-2020 12:50:00 20.6 C 64 % 13.55 C
1596 20-05-2020 12:55:00 20.7 C 64 % 13.65 C
1597 20-05-2020 13:00:00 20.8 C 64 % 13.74 C
1598 20-05-2020 13:05:00 21.1 C 64 % 14.03 C
1599 20-05-2020 13:10:00 21 C 62 % 13.44 C
1600 20-05-2020 13:15:00 20.9 C 63 % 13.6 C
Sensor: Nr:Datum:Temp:Feuchte:Taupunkt:
Aussen-T/F 1601 20-05-2020 13:20:00 21.1 C 62 % 13.54 C
1602 20-05-2020 13:25:00 21.2 C 62 % 13.63 C
1603 20-05-2020 13:30:00 21.3 C 62 % 13.73 C
1604 20-05-2020 13:35:00 21.3 C 61 % 13.48 C
1605 20-05-2020 13:40:00 21.2 C 61 % 13.38 C
1606 20-05-2020 13:45:00 21.2 C 60 % 13.13 C
1607 20-05-2020 13:50:00 21.3 C 61 % 13.48 C
1608 20-05-2020 13:55:00 21.4 C 60 % 13.32 C
1609 20-05-2020 14:00:00 21.3 C 61 % 13.48 C
1610 20-05-2020 14:05:00 21.4 C 61 % 13.57 C
1611 20-05-2020 14:10:00 21.4 C 60 % 13.32 C
1612 20-05-2020 14:15:00 21.6 C 60 % 13.51 C
1613 20-05-2020 14:20:00 21.7 C 59 % 13.34 C
1614 20-05-2020 14:25:00 21.7 C 60 % 13.6 C
1615 20-05-2020 14:30:00 21.8 C 60 % 13.69 C
1616 20-05-2020 14:35:00 22.1 C 59 % 13.72 C
1617 20-05-2020 14:40:00 22.3 C 59 % 13.9 C
1618 20-05-2020 14:45:00 22.6 C 58 % 13.92 C
1619 20-05-2020 14:50:00 22.5 C 57 % 13.56 C
1620 20-05-2020 14:55:00 22.3 C 58 % 13.64 C
1621 20-05-2020 15:00:00 22.3 C 60 % 14.16 C
1622 20-05-2020 15:05:00 22.4 C 58 % 13.73 C
1623 20-05-2020 15:10:00 22.5 C 58 % 13.83 C
1624 20-05-2020 15:15:00 22.6 C 57 % 13.65 C
1625 20-05-2020 15:20:00 22.8 C 56 % 13.57 C
Sensor: Nr:Datum:Temp:Feuchte:Taupunkt:
Aussen-T/F 1626 20-05-2020 15:25:00 22.9 C 57 % 13.93 C
1627 20-05-2020 15:30:00 23.3 C 56 % 14.03 C
1628 20-05-2020 15:35:00 23.7 C 53 % 13.56 C
1629 20-05-2020 15:40:00 23.8 C 52 % 13.36 C
1630 20-05-2020 15:45:00 23.9 C 52 % 13.45 C
1631 20-05-2020 15:50:00 24.2 C 52 % 13.73 C
1632 20-05-2020 15:55:00 24.3 C 52 % 13.82 C
1633 20-05-2020 16:00:00 24.4 C 51 % 13.61 C
1634 20-05-2020 16:05:00 24.5 C 51 % 13.7 C
1635 20-05-2020 16:10:00 24.6 C 51 % 13.79 C
1636 20-05-2020 16:15:00 24.7 C 49 % 13.27 C
1637 20-05-2020 16:20:00 24.4 C 49 % 13 C
1638 20-05-2020 16:25:00 24.1 C 50 % 13.03 C
1639 20-05-2020 16:30:00 23.7 C 52 % 13.26 C
1640 20-05-2020 16:35:00 23.8 C 52 % 13.36 C
1641 20-05-2020 16:40:00 24.3 C 50 % 13.22 C
1642 20-05-2020 16:45:00 24.2 C 50 % 13.12 C
1643 20-05-2020 16:50:00 24.1 C 50 % 13.03 C
1644 20-05-2020 16:55:00 24.2 C 50 % 13.12 C
1645 20-05-2020 17:00:00 24.4 C 50 % 13.31 C
1646 20-05-2020 17:05:00 24.8 C 49 % 13.36 C
1647 20-05-2020 17:10:00 25.1 C 49 % 13.64 C
1648 20-05-2020 17:15:00 24.9 C 48 % 13.14 C
1649 20-05-2020 17:20:00 24.4 C 50 % 13.31 C
1650 20-05-2020 17:25:00 24.3 C 51 % 13.52 C
Sensor: Nr:Datum:Temp:Feuchte:Taupunkt:
Aussen-T/F 1651 20-05-2020 17:30:00 24.2 C 50 % 13.12 C
1652 20-05-2020 17:35:00 24.4 C 49 % 13 C
1653 20-05-2020 17:40:00 24.6 C 48 % 12.87 C
1654 20-05-2020 17:45:00 24.4 C 49 % 13 C
1655 20-05-2020 17:50:00 24.5 C 50 % 13.4 C
1656 20-05-2020 17:55:00 24.3 C 48 % 12.59 C
1657 20-05-2020 18:00:00 24.2 C 48 % 12.5 C
1658 20-05-2020 18:05:00 24.3 C 50 % 13.22 C
1659 20-05-2020 18:10:00 24.6 C 48 % 12.87 C
1660 20-05-2020 18:15:00 24.4 C 49 % 13 C
1661 20-05-2020 18:20:00 24.4 C 49 % 13 C
1662 20-05-2020 18:25:00 24.5 C 49 % 13.09 C
1663 20-05-2020 18:30:00 24.6 C 49 % 13.18 C
1664 20-05-2020 18:35:00 24.6 C 48 % 12.87 C
1665 20-05-2020 18:40:00 24.6 C 48 % 12.87 C
1666 20-05-2020 18:45:00 24.8 C 47 % 12.73 C
1667 20-05-2020 18:50:00 24.8 C 48 % 13.05 C
1668 20-05-2020 18:55:00 24.4 C 48 % 12.68 C
1669 20-05-2020 19:00:00 24.1 C 49 % 12.72 C
1670 20-05-2020 19:05:00 24.2 C 50 % 13.12 C
1671 20-05-2020 19:10:00 24.1 C 50 % 13.03 C
1672 20-05-2020 19:15:00 24 C 50 % 12.94 C
1673 20-05-2020 19:20:00 23.8 C 50 % 12.76 C
1674 20-05-2020 19:25:00 23.7 C 50 % 12.67 C
1675 20-05-2020 19:30:00 23.5 C 51 % 12.78 C
Sensor: Nr:Datum:Temp:Feuchte:Taupunkt:
Aussen-T/F 1676 20-05-2020 19:35:00 23.3 C 51 % 12.6 C
1677 20-05-2020 19:40:00 23.2 C 52 % 12.8 C
1678 20-05-2020 19:45:00 23 C 53 % 12.91 C
1679 20-05-2020 19:50:00 22.9 C 53 % 12.82 C
1680 20-05-2020 19:55:00 22.8 C 53 % 12.73 C
1681 20-05-2020 20:00:00 22.8 C 53 % 12.73 C
1682 20-05-2020 20:05:00 22.7 C 53 % 12.63 C
1683 20-05-2020 20:10:00 22.4 C 54 % 12.64 C
1684 20-05-2020 20:15:00 22.3 C 55 % 12.83 C
1685 20-05-2020 20:20:00 22.2 C 55 % 12.73 C
1686 20-05-2020 20:25:00 22 C 55 % 12.55 C
1687 20-05-2020 20:30:00 21.9 C 55 % 12.46 C
1688 20-05-2020 20:35:00 21.7 C 56 % 12.54 C
1689 20-05-2020 20:40:00 21.6 C 56 % 12.45 C
1690 20-05-2020 20:45:00 21.4 C 58 % 12.8 C
1691 20-05-2020 20:50:00 21.2 C 59 % 12.87 C
1692 20-05-2020 20:55:00 21 C 60 % 12.94 C
1693 20-05-2020 21:00:00 20.6 C 60 % 12.57 C
1694 20-05-2020 21:05:00 20.3 C 61 % 12.54 C
1695 20-05-2020 21:10:00 20.1 C 61 % 12.35 C
1696 20-05-2020 21:15:00 20 C 61 % 12.26 C
1697 20-05-2020 21:20:00 20 C 62 % 12.5 C
1698 20-05-2020 21:25:00 19.9 C 64 % 12.89 C
1699 20-05-2020 21:30:00 19.6 C 65 % 12.84 C
1700 20-05-2020 21:35:00 19.1 C 66 % 12.6 C
Sensor: Nr:Datum:Temp:Feuchte:Taupunkt:
Aussen-T/F 1701 20-05-2020 21:40:00 18.6 C 67 % 12.36 C
1702 20-05-2020 21:45:00 18.2 C 68 % 12.2 C
1703 20-05-2020 21:50:00 17.8 C 70 % 12.26 C
1704 20-05-2020 21:55:00 17.5 C 71 % 12.19 C
1705 20-05-2020 22:00:00 17.3 C 72 % 12.21 C
1706 20-05-2020 22:05:00 17.1 C 72 % 12.02 C
1707 20-05-2020 22:10:00 16.9 C 73 % 12.03 C
1708 20-05-2020 22:15:00 16.8 C 74 % 12.14 C
1709 20-05-2020 22:20:00 16.6 C 74 % 11.95 C
1710 20-05-2020 22:25:00 16.4 C 75 % 11.96 C
1711 20-05-2020 22:30:00 16.3 C 76 % 12.07 C
1712 20-05-2020 22:35:00 16.2 C 76 % 11.97 C
1713 20-05-2020 22:40:00 16.2 C 76 % 11.97 C
1714 20-05-2020 22:45:00 16.1 C 76 % 11.87 C
1715 20-05-2020 22:50:00 16.1 C 77 % 12.07 C
1716 20-05-2020 22:55:00 15.9 C 77 % 11.88 C
1717 20-05-2020 23:00:00 15.8 C 77 % 11.78 C
1718 20-05-2020 23:05:00 15.8 C 77 % 11.78 C
1719 20-05-2020 23:10:00 15.7 C 77 % 11.68 C
1720 20-05-2020 23:15:00 15.6 C 78 % 11.78 C
1721 20-05-2020 23:20:00 15.5 C 78 % 11.68 C
1722 20-05-2020 23:25:00 15.4 C 78 % 11.59 C
1723 20-05-2020 23:30:00 15.3 C 78 % 11.49 C
1724 20-05-2020 23:35:00 15.2 C 79 % 11.59 C
1725 20-05-2020 23:40:00 15.1 C 79 % 11.49 C
Sensor: Nr:Datum:Temp:Feuchte:Taupunkt:
Aussen-T/F 1726 20-05-2020 23:45:00 15 C 79 % 11.39 C
1727 20-05-2020 23:50:00 14.9 C 79 % 11.29 C
1728 20-05-2020 23:55:00 14.9 C 80 % 11.48 C
1729 21-05-2020 00:00:00 14.8 C 80 % 11.39 C
1730 21-05-2020 00:05:00 14.7 C 80 % 11.29 C
1731 21-05-2020 00:10:00 14.7 C 80 % 11.29 C
1732 21-05-2020 00:15:00 14.6 C 80 % 11.19 C
1733 21-05-2020 00:20:00 14.5 C 81 % 11.28 C
1734 21-05-2020 00:25:00 14.4 C 80 % 11 C
1735 21-05-2020 00:30:00 14.4 C 80 % 11 C
1736 21-05-2020 00:35:00 14.4 C 80 % 11 C
1737 21-05-2020 00:40:00 14.4 C 80 % 11 C
1738 21-05-2020 00:45:00 14.5 C 80 % 11.09 C
1739 21-05-2020 00:50:00 14.6 C 80 % 11.19 C
1740 21-05-2020 00:55:00 14.6 C 79 % 11 C
1741 21-05-2020 01:00:00 14.6 C 79 % 11 C
1742 21-05-2020 01:05:00 14.6 C 79 % 11 C
1743 21-05-2020 01:10:00 14.7 C 79 % 11.1 C
1744 21-05-2020 01:15:00 14.9 C 79 % 11.29 C
1745 21-05-2020 01:20:00 14.9 C 78 % 11.1 C
1746 21-05-2020 01:25:00 15 C 78 % 11.2 C
1747 21-05-2020 01:30:00 14.9 C 78 % 11.1 C
1748 21-05-2020 01:35:00 14.8 C 78 % 11 C
1749 21-05-2020 01:40:00 14.5 C 79 % 10.91 C
1750 21-05-2020 01:45:00 14.3 C 80 % 10.9 C
Sensor: Nr:Datum:Temp:Feuchte:Taupunkt:
Aussen-T/F 1751 21-05-2020 01:50:00 14.1 C 80 % 10.71 C
1752 21-05-2020 01:55:00 13.9 C 81 % 10.7 C
1753 21-05-2020 02:00:00 13.7 C 82 % 10.69 C
1754 21-05-2020 02:05:00 13.6 C 82 % 10.59 C
1755 21-05-2020 02:10:00 13.4 C 83 % 10.57 C
1756 21-05-2020 02:15:00 13.3 C 83 % 10.48 C
1757 21-05-2020 02:20:00 13.3 C 84 % 10.66 C
1758 21-05-2020 02:25:00 13.2 C 84 % 10.56 C
1759 21-05-2020 02:30:00 13.1 C 84 % 10.46 C
1760 21-05-2020 02:35:00 13 C 85 % 10.54 C
1761 21-05-2020 02:40:00 12.9 C 85 % 10.44 C
1762 21-05-2020 02:45:00 12.9 C 85 % 10.44 C
1763 21-05-2020 02:50:00 12.8 C 86 % 10.52 C
1764 21-05-2020 02:55:00 12.8 C 86 % 10.52 C
1765 21-05-2020 03:00:00 12.7 C 86 % 10.42 C
1766 21-05-2020 03:05:00 12.7 C 86 % 10.42 C
1767 21-05-2020 03:10:00 12.7 C 86 % 10.42 C
1768 21-05-2020 03:15:00 12.6 C 87 % 10.5 C
1769 21-05-2020 03:20:00 12.6 C 87 % 10.5 C
1770 21-05-2020 03:25:00 12.5 C 87 % 10.4 C
1771 21-05-2020 03:30:00 12.4 C 87 % 10.3 C
1772 21-05-2020 03:35:00 12.4 C 87 % 10.3 C
1773 21-05-2020 03:40:00 12.3 C 87 % 10.2 C
1774 21-05-2020 03:45:00 12.2 C 87 % 10.1 C
1775 21-05-2020 03:50:00 12.1 C 87 % 10 C
Sensor: Nr:Datum:Temp:Feuchte:Taupunkt:
Aussen-T/F 1776 21-05-2020 03:55:00 12 C 88 % 10.08 C
1777 21-05-2020 04:00:00 11.9 C 88 % 9.98 C
1778 21-05-2020 04:05:00 11.8 C 88 % 9.88 C
1779 21-05-2020 04:10:00 11.8 C 89 % 10.05 C
1780 21-05-2020 04:15:00 11.7 C 88 % 9.78 C
1781 21-05-2020 04:20:00 11.6 C 89 % 9.85 C
1782 21-05-2020 04:25:00 11.4 C 89 % 9.65 C
1783 21-05-2020 04:30:00 11.3 C 89 % 9.55 C
1784 21-05-2020 04:35:00 11.2 C 89 % 9.46 C
1785 21-05-2020 04:40:00 11.2 C 90 % 9.62 C
1786 21-05-2020 04:45:00 11.1 C 90 % 9.52 C
1787 21-05-2020 04:50:00 11.1 C 90 % 9.52 C
1788 21-05-2020 04:55:00 10.9 C 90 % 9.33 C
1789 21-05-2020 05:00:00 10.9 C 90 % 9.33 C
1790 21-05-2020 05:05:00 10.8 C 91 % 9.39 C
1791 21-05-2020 05:10:00 10.7 C 91 % 9.29 C
1792 21-05-2020 05:15:00 10.7 C 91 % 9.29 C
1793 21-05-2020 05:20:00 10.7 C 91 % 9.29 C
1794 21-05-2020 05:25:00 10.6 C 91 % 9.19 C
1795 21-05-2020 05:30:00 10.6 C 92 % 9.36 C
1796 21-05-2020 05:35:00 10.5 C 92 % 9.26 C
1797 21-05-2020 05:40:00 10.4 C 92 % 9.16 C
1798 21-05-2020 05:45:00 10.4 C 92 % 9.16 C
1799 21-05-2020 05:50:00 10.3 C 92 % 9.06 C
1800 21-05-2020 05:55:00 10.3 C 92 % 9.06 C
Sensor: Nr:Datum:Temp:Feuchte:Taupunkt:
Aussen-T/F 1801 21-05-2020 06:00:00 10.3 C 92 % 9.06 C
1802 21-05-2020 06:05:00 10.3 C 93 % 9.22 C
1803 21-05-2020 06:10:00 10.3 C 93 % 9.22 C
1804 21-05-2020 06:15:00 10.2 C 93 % 9.12 C
1805 21-05-2020 06:20:00 10.2 C 93 % 9.12 C
1806 21-05-2020 06:25:00 10.2 C 93 % 9.12 C
1807 21-05-2020 06:30:00 10.2 C 93 % 9.12 C
1808 21-05-2020 06:35:00 10.2 C 93 % 9.12 C
1809 21-05-2020 06:40:00 10.3 C 93 % 9.22 C
1810 21-05-2020 06:45:00 10.3 C 93 % 9.22 C
1811 21-05-2020 06:50:00 10.3 C 93 % 9.22 C
1812 21-05-2020 06:55:00 10.3 C 93 % 9.22 C
1813 21-05-2020 07:00:00 10.3 C 94 % 9.38 C
1814 21-05-2020 07:05:00 10.3 C 94 % 9.38 C
1815 21-05-2020 07:10:00 10.4 C 94 % 9.48 C
1816 21-05-2020 07:15:00 10.5 C 94 % 9.58 C
1817 21-05-2020 07:20:00 10.6 C 94 % 9.68 C
1818 21-05-2020 07:25:00 10.7 C 94 % 9.77 C
1819 21-05-2020 07:30:00 10.7 C 94 % 9.77 C
1820 21-05-2020 07:35:00 10.8 C 94 % 9.87 C
1821 21-05-2020 07:40:00 10.8 C 94 % 9.87 C
1822 21-05-2020 07:45:00 10.9 C 94 % 9.97 C
1823 21-05-2020 07:50:00 11 C 95 % 10.23 C
1824 21-05-2020 07:55:00 11.1 C 95 % 10.33 C
1825 21-05-2020 08:00:00 11.2 C 95 % 10.43 C
Sensor: Nr:Datum:Temp:Feuchte:Taupunkt:
Aussen-T/F 1826 21-05-2020 08:05:00 11.3 C 95 % 10.53 C
1827 21-05-2020 08:10:00 11.4 C 95 % 10.63 C
1828 21-05-2020 08:15:00 11.4 C 95 % 10.63 C
1829 21-05-2020 08:20:00 11.6 C 95 % 10.83 C
1830 21-05-2020 08:25:00 11.7 C 95 % 10.93 C
1831 21-05-2020 08:30:00 11.8 C 95 % 11.03 C
1832 21-05-2020 08:35:00 11.9 C 95 % 11.13 C
1833 21-05-2020 08:40:00 12.1 C 95 % 11.32 C
1834 21-05-2020 08:45:00 12.2 C 95 % 11.42 C
1835 21-05-2020 08:50:00 12.3 C 95 % 11.52 C
1836 21-05-2020 08:55:00 12.5 C 95 % 11.72 C
1837 21-05-2020 09:00:00 12.7 C 95 % 11.92 C
1838 21-05-2020 09:05:00 12.9 C 95 % 12.12 C
1839 21-05-2020 09:10:00 13.1 C 94 % 12.16 C
1840 21-05-2020 09:15:00 13.3 C 94 % 12.36 C
1841 21-05-2020 09:20:00 13.6 C 94 % 12.65 C
1842 21-05-2020 09:25:00 13.8 C 93 % 12.69 C
1843 21-05-2020 09:30:00 14 C 93 % 12.89 C
1844 21-05-2020 09:35:00 14.2 C 91 % 12.75 C
1845 21-05-2020 09:40:00 14.4 C 91 % 12.95 C
1846 21-05-2020 09:45:00 14.7 C 90 % 13.08 C
1847 21-05-2020 09:50:00 14.9 C 89 % 13.1 C
1848 21-05-2020 09:55:00 15.1 C 88 % 13.13 C
1849 21-05-2020 10:00:00 15.3 C 87 % 13.15 C
1850 21-05-2020 10:05:00 15.7 C 86 % 13.37 C
Sensor: Nr:Datum:Temp:Feuchte:Taupunkt:
Aussen-T/F 1851 21-05-2020 10:10:00 16 C 85 % 13.48 C
1852 21-05-2020 10:15:00 16.3 C 84 % 13.59 C
1853 21-05-2020 10:20:00 16.7 C 84 % 13.98 C
1854 21-05-2020 10:25:00 17.1 C 82 % 14 C
1855 21-05-2020 10:30:00 17.8 C 78 % 13.91 C
1856 21-05-2020 10:35:00 18.6 C 74 % 13.88 C
1857 21-05-2020 10:40:00 19.3 C 70 % 13.69 C
1858 21-05-2020 10:45:00 19.7 C 69 % 13.86 C
1859 21-05-2020 10:50:00 19.9 C 68 % 13.82 C
1860 21-05-2020 10:55:00 20.1 C 67 % 13.78 C
1861 21-05-2020 11:00:00 20.3 C 67 % 13.97 C
1862 21-05-2020 11:05:00 20.6 C 67 % 14.26 C
1863 21-05-2020 11:10:00 20.8 C 67 % 14.45 C
1864 21-05-2020 11:15:00 21 C 64 % 13.93 C
1865 21-05-2020 11:20:00 21.2 C 62 % 13.63 C
1866 21-05-2020 11:25:00 21.3 C 63 % 13.97 C
1867 21-05-2020 11:30:00 21.4 C 62 % 13.82 C
1868 21-05-2020 11:35:00 21.4 C 62 % 13.82 C
1869 21-05-2020 11:40:00 21.5 C 61 % 13.67 C
1870 21-05-2020 11:45:00 21.7 C 60 % 13.6 C
1871 21-05-2020 11:50:00 21.8 C 60 % 13.69 C
1872 21-05-2020 11:55:00 21.8 C 61 % 13.95 C
1873 21-05-2020 12:00:00 21.7 C 61 % 13.85 C
1874 21-05-2020 12:05:00 21.7 C 60 % 13.6 C
1875 21-05-2020 12:10:00 21.8 C 60 % 13.69 C
Sensor: Nr:Datum:Temp:Feuchte:Taupunkt:
Aussen-T/F 1876 21-05-2020 12:15:00 21.8 C 60 % 13.69 C
1877 21-05-2020 12:20:00 22 C 61 % 14.14 C
1878 21-05-2020 12:25:00 22.1 C 58 % 13.45 C
1879 21-05-2020 12:30:00 22.1 C 58 % 13.45 C
1880 21-05-2020 12:35:00 22.3 C 58 % 13.64 C
1881 21-05-2020 12:40:00 22.4 C 57 % 13.47 C
1882 21-05-2020 12:45:00 22.5 C 58 % 13.83 C
1883 21-05-2020 12:50:00 22.7 C 57 % 13.75 C
1884 21-05-2020 12:55:00 22.8 C 55 % 13.29 C
1885 21-05-2020 13:00:00 22.8 C 54 % 13.01 C
1886 21-05-2020 13:05:00 22.8 C 56 % 13.57 C
1887 21-05-2020 13:10:00 22.9 C 56 % 13.66 C
1888 21-05-2020 13:15:00 23.1 C 55 % 13.57 C
1889 21-05-2020 13:20:00 23.1 C 57 % 14.12 C
1890 21-05-2020 13:25:00 23.2 C 57 % 14.21 C
1891 21-05-2020 13:30:00 23.3 C 54 % 13.47 C
1892 21-05-2020 13:35:00 23.4 C 54 % 13.57 C
1893 21-05-2020 13:40:00 23.6 C 54 % 13.75 C
1894 21-05-2020 13:45:00 23.6 C 55 % 14.03 C
1895 21-05-2020 13:50:00 23.5 C 54 % 13.66 C
1896 21-05-2020 13:55:00 23.6 C 55 % 14.03 C
1897 21-05-2020 14:00:00 23.7 C 55 % 14.13 C
1898 21-05-2020 14:05:00 23.9 C 55 % 14.31 C
1899 21-05-2020 14:10:00 24.1 C 54 % 14.21 C
1900 21-05-2020 14:15:00 24.3 C 53 % 14.11 C
Sensor: Nr:Datum:Temp:Feuchte:Taupunkt:
Aussen-T/F 1901 21-05-2020 14:20:00 24.4 C 52 % 13.91 C
1902 21-05-2020 14:25:00 24.5 C 53 % 14.3 C
1903 21-05-2020 14:30:00 24.8 C 53 % 14.57 C
1904 21-05-2020 14:35:00 25.1 C 51 % 14.25 C
1905 21-05-2020 14:40:00 25.2 C 50 % 14.04 C
1906 21-05-2020 14:45:00 25.2 C 50 % 14.04 C
1907 21-05-2020 14:50:00 25.1 C 50 % 13.95 C
1908 21-05-2020 14:55:00 25.2 C 50 % 14.04 C
1909 21-05-2020 15:00:00 25.5 C 49 % 14 C
1910 21-05-2020 15:05:00 25.6 C 48 % 13.78 C
1911 21-05-2020 15:10:00 25.7 C 50 % 14.5 C
1912 21-05-2020 15:15:00 26.2 C 46 % 13.67 C
1913 21-05-2020 15:20:00 26.6 C 46 % 14.03 C
1914 21-05-2020 15:25:00 26.9 C 46 % 14.3 C
1915 21-05-2020 15:30:00 27.1 C 46 % 14.49 C
1916 21-05-2020 15:35:00 27.5 C 47 % 15.18 C
1917 21-05-2020 15:40:00 27.7 C 44 % 14.34 C
1918 21-05-2020 15:45:00 27.8 C 42 % 13.71 C
1919 21-05-2020 15:50:00 27.8 C 42 % 13.71 C
1920 21-05-2020 15:55:00 27.9 C 42 % 13.8 C
1921 21-05-2020 16:00:00 27.9 C 41 % 13.43 C
1922 21-05-2020 16:05:00 27.8 C 42 % 13.71 C
1923 21-05-2020 16:10:00 27.8 C 43 % 14.08 C
1924 21-05-2020 16:15:00 27.8 C 42 % 13.71 C
1925 21-05-2020 16:20:00 27.8 C 45 % 14.78 C
Sensor: Nr:Datum:Temp:Feuchte:Taupunkt:
Aussen-T/F 1926 21-05-2020 16:25:00 28.1 C 43 % 14.35 C
1927 21-05-2020 16:30:00 28.1 C 41 % 13.61 C
1928 21-05-2020 16:35:00 28.2 C 41 % 13.7 C
1929 21-05-2020 16:40:00 28.4 C 39 % 13.11 C
1930 21-05-2020 16:45:00 28.2 C 38 % 12.54 C
1931 21-05-2020 16:50:00 28.3 C 40 % 13.41 C
1932 21-05-2020 16:55:00 28.4 C 42 % 14.25 C
1933 21-05-2020 17:00:00 28.5 C 39 % 13.2 C
1934 21-05-2020 17:05:00 28.5 C 40 % 13.59 C
1935 21-05-2020 17:10:00 28.9 C 38 % 13.16 C
1936 21-05-2020 17:15:00 29.2 C 39 % 13.82 C
1937 21-05-2020 17:20:00 28.9 C 37 % 12.75 C
1938 21-05-2020 17:25:00 28.9 C 38 % 13.16 C
1939 21-05-2020 17:30:00 29 C 38 % 13.25 C
1940 21-05-2020 17:35:00 28.8 C 38 % 13.07 C
1941 21-05-2020 17:40:00 28.7 C 39 % 13.38 C
1942 21-05-2020 17:45:00 28.6 C 38 % 12.89 C
1943 21-05-2020 17:50:00 28.3 C 38 % 12.63 C
1944 21-05-2020 17:55:00 28.1 C 38 % 12.45 C
1945 21-05-2020 18:00:00 27.9 C 40 % 13.05 C
1946 21-05-2020 18:05:00 28.3 C 40 % 13.41 C
1947 21-05-2020 18:10:00 28.9 C 38 % 13.16 C
1948 21-05-2020 18:15:00 28.7 C 36 % 12.16 C
1949 21-05-2020 18:20:00 28.1 C 37 % 12.04 C
1950 21-05-2020 18:25:00 27.9 C 38 % 12.27 C
Sensor: Nr:Datum:Temp:Feuchte:Taupunkt:
Aussen-T/F 1951 21-05-2020 18:30:00 27.8 C 38 % 12.18 C
1952 21-05-2020 18:35:00 27.7 C 39 % 12.49 C
1953 21-05-2020 18:40:00 27.5 C 40 % 12.7 C
1954 21-05-2020 18:45:00 27.7 C 40 % 12.88 C
1955 21-05-2020 18:50:00 28 C 42 % 13.89 C
1956 21-05-2020 18:55:00 28.3 C 39 % 13.02 C
1957 21-05-2020 19:00:00 28.4 C 39 % 13.11 C
1958 21-05-2020 19:05:00 28.6 C 40 % 13.68 C
1959 21-05-2020 19:10:00 28.5 C 39 % 13.2 C
1960 21-05-2020 19:15:00 28.6 C 38 % 12.89 C
1961 21-05-2020 19:20:00 28.4 C 40 % 13.5 C
1962 21-05-2020 19:25:00 28.2 C 39 % 12.93 C
1963 21-05-2020 19:30:00 27.9 C 40 % 13.05 C
1964 21-05-2020 19:35:00 27.7 C 41 % 13.25 C
1965 21-05-2020 19:40:00 27.7 C 43 % 13.99 C
1966 21-05-2020 19:45:00 27.7 C 48 % 15.69 C
1967 21-05-2020 19:50:00 27.7 C 48 % 15.69 C
1968 21-05-2020 19:55:00 27.6 C 48 % 15.6 C
1969 21-05-2020 20:00:00 27.6 C 48 % 15.6 C
1970 21-05-2020 20:05:00 27.3 C 49 % 15.65 C
1971 21-05-2020 20:10:00 26.9 C 49 % 15.28 C
1972 21-05-2020 20:15:00 26.3 C 50 % 15.05 C
1973 21-05-2020 20:20:00 25.7 C 52 % 15.11 C
1974 21-05-2020 20:25:00 25.1 C 54 % 15.14 C
1975 21-05-2020 20:30:00 24.7 C 55 % 15.05 C
Sensor: Nr:Datum:Temp:Feuchte:Taupunkt:
Aussen-T/F 1976 21-05-2020 20:35:00 24.5 C 56 % 15.15 C
1977 21-05-2020 20:40:00 24.3 C 57 % 15.24 C
1978 21-05-2020 20:45:00 24.1 C 57 % 15.05 C
1979 21-05-2020 20:50:00 23.8 C 58 % 15.04 C
1980 21-05-2020 20:55:00 23.4 C 59 % 14.93 C
1981 21-05-2020 21:00:00 23.1 C 60 % 14.91 C
1982 21-05-2020 21:05:00 22.6 C 61 % 14.7 C
1983 21-05-2020 21:10:00 22.2 C 62 % 14.58 C
1984 21-05-2020 21:15:00 21.8 C 63 % 14.45 C
1985 21-05-2020 21:20:00 21.5 C 64 % 14.41 C
1986 21-05-2020 21:25:00 21.2 C 65 % 14.36 C
1987 21-05-2020 21:30:00 20.9 C 66 % 14.31 C
1988 21-05-2020 21:35:00 20.7 C 67 % 14.36 C
1989 21-05-2020 21:40:00 20.4 C 67 % 14.07 C
1990 21-05-2020 21:45:00 20.2 C 68 % 14.11 C
1991 21-05-2020 21:50:00 20 C 69 % 14.14 C
1992 21-05-2020 21:55:00 19.8 C 69 % 13.95 C
1993 21-05-2020 22:00:00 19.7 C 70 % 14.08 C
1994 21-05-2020 22:05:00 19.6 C 70 % 13.98 C
1995 21-05-2020 22:10:00 19.5 C 71 % 14.1 C
1996 21-05-2020 22:15:00 19.4 C 71 % 14.01 C
1997 21-05-2020 22:20:00 19.3 C 72 % 14.13 C
1998 21-05-2020 22:25:00 19.1 C 72 % 13.94 C
1999 21-05-2020 22:30:00 18.9 C 73 % 13.96 C
2000 21-05-2020 22:35:00 18.8 C 74 % 14.07 C
Sensor: Nr:Datum:Temp:Feuchte:Taupunkt:
Aussen-T/F 2001 21-05-2020 22:40:00 18.8 C 74 % 14.07 C
2002 21-05-2020 22:45:00 18.7 C 74 % 13.97 C
2003 21-05-2020 22:50:00 18.7 C 74 % 13.97 C
2004 21-05-2020 22:55:00 18.7 C 74 % 13.97 C
2005 21-05-2020 23:00:00 18.7 C 73 % 13.76 C
2006 21-05-2020 23:05:00 18.8 C 73 % 13.86 C
2007 21-05-2020 23:10:00 18.9 C 73 % 13.96 C
2008 21-05-2020 23:15:00 18.9 C 73 % 13.96 C
2009 21-05-2020 23:20:00 18.9 C 73 % 13.96 C
2010 21-05-2020 23:25:00 18.9 C 73 % 13.96 C
2011 21-05-2020 23:30:00 18.8 C 73 % 13.86 C
2012 21-05-2020 23:35:00 18.7 C 73 % 13.76 C
2013 21-05-2020 23:40:00 18.6 C 73 % 13.67 C
2014 21-05-2020 23:45:00 18.4 C 74 % 13.68 C
2015 21-05-2020 23:50:00 18.3 C 74 % 13.59 C
2016 21-05-2020 23:55:00 18.2 C 74 % 13.49 C

Legende:
   Min
   Max


Maximal/Minimal-Werte vom 15.05.2020 - 21.05.2020

Sensor Min Max Avg
Temp
(Aussen-T/F)
2.1 °C
15-05-2020  06:05:00
29.2 °C
21-05-2020  17:15:00
14.83 °C
Feuchte
(Aussen-T/F)
33 %
15-05-2020  17:10:00
95 %
21-05-2020  07:50:00
65.77 %
Taupunkt
(Aussen-T/F)
0.36 C
15-05-2020  05:40:00
15.69 C
21-05-2020  19:45:00
7.63 C

Die Daten stammen von einer Davis Vantage Pro 2 Wetter-Station und werden unter Linux mit der Software wview2wettercgi und aufbereitet. Alle Angaben erfolgen ohne Gewähr für ihre Vollständigkeit oder Richtigkeit.
Kontakt: Rainer Krienke krienke@uni-koblenz.de . Meine Webseiten an der Uni Koblenz oder privat.
Version: $Revision: 0.78 $